GEFSSE_prec_meanprec_036.txt.gz
QPF
0.00 0.00 0.00 0.00 0.00 0.00 0.00 0.00 0.00 0.00 0.00 0.00 0.00 0.00 0.00 0.00 0.00 0.00 0.00 0.00 0.00 0.00 0.00 0.00 0.00 0.00 0.00 0.00 0.00 0.00 0.00 0.00 0.00 0.00 0.00 0.00 0.00 0.00 0.00 0.00 0.00 0.00 0.00
0.00 0.00 0.00 0.00 0.00 0.00 0.00 0.00 0.00 0.00 0.00 0.00 0.00 0.00 0.00 0.00 0.00 0.00 0.00 0.00 0.00 0.00 0.00 0.00 0.00 0.00 0.00 0.00 0.00 0.00 0.00 0.00 0.00 0.00 0.00 0.00 0.00 0.00 0.00 0.00 0.00 0.00 0.00
0.00 0.00 0.00 0.00 0.00 0.00 0.00 0.00 0.00 0.00 0.00 0.00 0.00 0.00 0.00 0.00 0.00 0.00 0.00 0.00 0.00 0.00 0.00 0.00 0.00 0.00 0.00 0.00 0.00 0.00 0.00 0.00 0.00 0.00 0.00 0.00 0.00 0.00 0.00 0.00 0.00 0.00 0.00
0.00 0.00 0.00 0.00 0.00 0.00 0.00 0.00 0.00 0.00 0.00 0.00 0.00 0.00 0.00 0.00 0.00 0.00 0.00 0.00 0.00 0.00 0.00 0.00 0.00 0.00 0.00 0.00 0.00 0.00 0.00 0.00 0.00 0.00 0.00 0.00 0.00 0.00 0.00 0.00 0.00 0.00 0.00
0.00 0.00 0.00 0.00 0.00 0.00 0.00 0.00 0.00 0.00 0.00 0.00 0.00 0.00 0.00 0.00 0.00 0.00 0.00 0.00 0.00 0.00 0.00 0.00 0.00 0.00 0.00 0.00 0.00 0.00 0.00 0.00 0.00 0.00 0.00 0.00 0.00 0.00 0.00 0.00 0.00 0.00 0.00
0.00 0.00 0.00 0.00 0.00 0.00 0.00 0.00 0.00 0.00 0.00 0.00 0.00 0.00 0.00 0.00 0.00 0.00 0.00 0.00 0.00 0.00 0.00 0.00 0.00 0.00 0.00 0.00 0.00 0.00 0.00 0.00 0.00 0.00 0.00 0.01 0.02 0.01 0.00 0.02 0.03 0.03 0.02
0.00 0.00 0.00 0.00 0.00 0.00 0.00 0.00 0.00 0.00 0.00 0.00 0.00 0.00 0.00 0.00 0.00 0.00 0.00 0.00 0.00 0.00 0.00 0.00 0.00 0.00 0.00 0.01 0.01 0.00 0.00 0.00 0.00 0.00 0.00 0.01 0.02 0.01 0.01 0.07 0.10 0.09 0.08
0.00 0.00 0.00 0.00 0.00 0.00 0.00 0.00 0.00 0.00 0.00 0.00 0.00 0.00 0.00 0.00 0.00 0.00 0.00 0.00 0.00 0.00 0.00 0.00 0.00 0.00 0.01 0.01 0.01 0.01 0.01 0.01 0.00 0.01 0.01 0.01 0.01 0.00 0.02 0.08 0.13 0.12 0.12
0.00 0.00 0.00 0.00 0.00 0.00 0.00 0.00 0.00 0.00 0.00 0.00 0.00 0.00 0.00 0.00 0.00 0.00 0.00 0.00 0.00 0.00 0.00 0.00 0.00 0.00 0.00 0.01 0.01 0.01 0.02 0.01 0.01 0.01 0.00 0.00 0.00 0.00 0.01 0.06 0.11 0.12 0.11
0.00 0.00 0.00 0.00 0.00 0.00 0.00 0.00 0.00 0.00 0.00 0.00 0.00 0.00 0.00 0.00 0.00 0.00 0.00 0.01 0.01 0.01 0.01 0.01 0.01 0.00 0.00 0.00 0.00 0.00 0.01 0.01 0.01 0.01 0.01 0.00 0.00 0.00 0.01 0.04 0.08 0.10 0.09
0.00 0.00 0.00 0.00 0.00 0.00 0.00 0.00 0.00 0.00 0.00 0.00 0.00 0.00 0.00 0.00 0.00 0.00 0.00 0.01 0.02 0.03 0.04 0.06 0.05 0.03 0.02 0.01 0.01 0.00 0.00 0.01 0.00 0.00 0.01 0.00 0.01 0.01 0.02 0.03 0.05 0.07 0.09
0.00 0.00 0.00 0.00 0.00 0.00 0.00 0.00 0.00 0.00 0.00 0.00 0.01 0.00 0.01 0.01 0.01 0.00 0.00 0.01 0.02 0.06 0.08 0.08 0.09 0.06 0.06 0.08 0.08 0.04 0.02 0.01 0.01 0.01 0.02 0.01 0.02 0.04 0.07 0.05 0.06 0.07 0.09
0.00 0.00 0.00 0.00 0.00 0.00 0.00 0.00 0.00 0.00 0.00 0.00 0.00 0.00 0.01 0.00 0.00 0.00 0.00 0.00 0.01 0.03 0.05 0.08 0.11 0.09 0.10 0.11 0.08 0.05 0.02 0.02 0.02 0.02 0.02 0.02 0.02 0.05 0.10 0.08 0.07 0.07 0.07
0.00 0.00 0.00 0.00 0.00 0.00 0.00 0.00 0.00 0.00 0.00 0.00 0.00 0.00 0.00 0.00 0.00 0.00 0.00 0.00 0.01 0.02 0.07 0.11 0.11 0.06 0.04 0.03 0.03 0.02 0.02 0.04 0.03 0.05 0.05 0.01 0.01 0.03 0.07 0.08 0.07 0.06 0.05
0.00 0.00 0.00 0.00 0.00 0.00 0.00 0.00 0.00 0.00 0.00 0.00 0.00 0.00 0.00 0.00 0.00 0.00 0.00 0.01 0.01 0.02 0.04 0.08 0.05 0.03 0.02 0.01 0.01 0.01 0.01 0.02 0.02 0.04 0.04 0.02 0.01 0.02 0.04 0.07 0.07 0.06 0.04
0.00 0.00 0.00 0.00 0.00 0.00 0.00 0.00 0.00 0.00 0.00 0.00 0.00 0.00 0.00 0.00 0.00 0.00 0.00 0.02 0.02 0.03 0.05 0.06 0.03 0.03 0.02 0.02 0.01 0.01 0.01 0.01 0.01 0.02 0.02 0.02 0.01 0.01 0.02 0.04 0.06 0.06 0.05
0.00 0.00 0.00 0.00 0.00 0.00 0.00 0.00 0.00 0.00 0.00 0.00 0.00 0.00 0.00 0.00 0.02 0.03 0.03 0.03 0.04 0.04 0.05 0.06 0.06 0.05 0.03 0.02 0.01 0.01 0.00 0.01 0.01 0.01 0.01 0.01 0.01 0.00 0.00 0.02 0.05 0.05 0.05
0.00 0.00 0.00 0.00 0.00 0.00 0.00 0.00 0.00 0.00 0.00 0.00 0.01 0.02 0.03 0.04 0.06 0.08 0.07 0.06 0.10 0.08 0.07 0.11 0.11 0.08 0.07 0.05 0.02 0.01 0.00 0.00 0.00 0.00 0.00 0.00 0.00 0.00 0.00 0.01 0.03 0.04 0.05
0.00 0.00 0.00 0.00 0.00 0.00 0.00 0.00 0.00 0.00 0.00 0.01 0.04 0.06 0.09 0.09 0.11 0.14 0.12 0.15 0.17 0.13 0.13 0.10 0.13 0.17 0.15 0.14 0.07 0.03 0.00 0.00 0.00 0.00 0.00 0.00 0.00 0.00 0.00 0.01 0.01 0.02 0.04
0.01 0.01 0.00 0.00 0.01 0.01 0.01 0.01 0.01 0.01 0.01 0.03 0.07 0.10 0.13 0.16 0.17 0.19 0.17 0.19 0.20 0.18 0.21 0.25 0.26 0.22 0.16 0.14 0.06 0.02 0.01 0.00 0.00 0.00 0.00 0.00 0.00 0.00 0.00 0.00 0.01 0.01 0.01
0.02 0.03 0.02 0.03 0.04 0.04 0.05 0.06 0.07 0.07 0.10 0.12 0.13 0.15 0.17 0.19 0.21 0.23 0.19 0.23 0.24 0.22 0.25 0.28 0.25 0.20 0.17 0.15 0.07 0.03 0.01 0.00 0.00 0.00 0.00 0.00 0.00 0.00 0.00 0.00 0.00 0.02 0.03
0.04 0.05 0.05 0.06 0.09 0.11 0.13 0.17 0.19 0.23 0.24 0.24 0.24 0.26 0.26 0.24 0.23 0.23 0.25 0.25 0.23 0.23 0.23 0.24 0.22 0.18 0.13 0.11 0.09 0.06 0.01 0.00 0.00 0.00 0.00 0.00 0.00 0.00 0.01 0.01 0.02 0.04 0.04
0.05 0.07 0.07 0.08 0.10 0.13 0.18 0.26 0.29 0.31 0.30 0.31 0.34 0.36 0.35 0.31 0.28 0.25 0.26 0.26 0.23 0.22 0.21 0.22 0.20 0.15 0.11 0.10 0.08 0.07 0.04 0.02 0.01 0.00 0.00 0.01 0.02 0.03 0.04 0.03 0.02 0.02 0.04
0.07 0.09 0.09 0.08 0.10 0.15 0.21 0.30 0.35 0.37 0.39 0.44 0.47 0.45 0.40 0.35 0.32 0.29 0.27 0.24 0.23 0.21 0.17 0.14 0.12 0.10 0.08 0.07 0.06 0.05 0.06 0.07 0.06 0.03 0.01 0.03 0.04 0.04 0.04 0.03 0.02 0.03 0.04
0.06 0.07 0.09 0.08 0.10 0.14 0.18 0.24 0.33 0.35 0.39 0.43 0.44 0.42 0.38 0.36 0.33 0.31 0.27 0.23 0.18 0.14 0.10 0.08 0.07 0.06 0.05 0.04 0.04 0.04 0.04 0.07 0.09 0.08 0.03 0.04 0.05 0.05 0.06 0.05 0.05 0.06 0.06
0.02 0.04 0.05 0.06 0.06 0.08 0.10 0.11 0.14 0.17 0.24 0.27 0.29 0.30 0.30 0.29 0.29 0.28 0.25 0.20 0.16 0.11 0.07 0.05 0.04 0.04 0.03 0.02 0.03 0.03 0.03 0.05 0.07 0.10 0.07 0.06 0.05 0.05 0.05 0.05 0.05 0.05 0.06

GEFSSE_prec_meanprec_042.txt.gz
QPF
0.00 0.00 0.00 0.00 0.00 0.00 0.00 0.00 0.00 0.00 0.00 0.00 0.00 0.00 0.00 0.00 0.00 0.00 0.00 0.00 0.00 0.00 0.00 0.00 0.00 0.00 0.00 0.00 0.00 0.00 0.00 0.00 0.00 0.00 0.00 0.00 0.00 0.00 0.00 0.00 0.01 0.00 0.00
0.00 0.00 0.00 0.00 0.00 0.00 0.00 0.00 0.00 0.00 0.00 0.00 0.00 0.00 0.00 0.00 0.00 0.00 0.00 0.00 0.00 0.00 0.00 0.00 0.00 0.00 0.00 0.00 0.00 0.00 0.00 0.00 0.00 0.00 0.00 0.00 0.00 0.00 0.00 0.00 0.01 0.00 0.00
0.00 0.00 0.00 0.00 0.00 0.00 0.00 0.00 0.00 0.00 0.00 0.00 0.00 0.00 0.00 0.00 0.00 0.00 0.00 0.00 0.00 0.00 0.00 0.00 0.00 0.00 0.00 0.00 0.00 0.00 0.00 0.00 0.00 0.00 0.00 0.01 0.00 0.00 0.00 0.00 0.00 0.00 0.00
0.00 0.00 0.00 0.00 0.00 0.00 0.00 0.00 0.00 0.00 0.00 0.00 0.00 0.00 0.00 0.00 0.00 0.00 0.00 0.00 0.00 0.00 0.00 0.00 0.00 0.00 0.00 0.00 0.00 0.00 0.00 0.00 0.00 0.00 0.00 0.03 0.01 0.00 0.00 0.00 0.00 0.00 0.00
0.00 0.00 0.00 0.00 0.00 0.00 0.00 0.00 0.00 0.00 0.00 0.00 0.00 0.00 0.00 0.00 0.00 0.00 0.00 0.00 0.00 0.00 0.00 0.00 0.00 0.00 0.00 0.00 0.00 0.00 0.00 0.00 0.00 0.00 0.00 0.01 0.01 0.01 0.00 0.00 0.00 0.00 0.00
0.00 0.00 0.00 0.00 0.00 0.00 0.00 0.00 0.00 0.00 0.00 0.00 0.00 0.00 0.00 0.00 0.00 0.00 0.00 0.00 0.00 0.00 0.00 0.00 0.00 0.00 0.00 0.00 0.00 0.00 0.00 0.00 0.00 0.00 0.00 0.01 0.03 0.02 0.00 0.01 0.01 0.01 0.00
0.00 0.00 0.00 0.00 0.00 0.00 0.00 0.00 0.00 0.00 0.00 0.00 0.00 0.00 0.00 0.00 0.00 0.00 0.00 0.00 0.00 0.00 0.00 0.00 0.00 0.00 0.00 0.00 0.00 0.00 0.00 0.00 0.00 0.00 0.00 0.01 0.03 0.02 0.01 0.01 0.02 0.02 0.03
0.00 0.00 0.00 0.00 0.00 0.00 0.00 0.00 0.00 0.00 0.00 0.00 0.00 0.00 0.00 0.00 0.00 0.00 0.00 0.00 0.00 0.00 0.00 0.00 0.00 0.00 0.00 0.00 0.00 0.00 0.00 0.00 0.00 0.00 0.00 0.01 0.01 0.01 0.01 0.01 0.02 0.03 0.04
0.00 0.00 0.00 0.00 0.00 0.00 0.00 0.00 0.00 0.00 0.00 0.00 0.00 0.00 0.00 0.00 0.00 0.00 0.00 0.00 0.00 0.00 0.00 0.00 0.00 0.00 0.00 0.00 0.00 0.00 0.00 0.00 0.00 0.00 0.00 0.00 0.01 0.01 0.01 0.01 0.01 0.02 0.03
0.00 0.00 0.00 0.00 0.00 0.00 0.00 0.00 0.00 0.00 0.00 0.00 0.00 0.00 0.00 0.00 0.00 0.00 0.00 0.00 0.00 0.00 0.00 0.01 0.01 0.00 0.00 0.00 0.00 0.00 0.00 0.00 0.00 0.00 0.00 0.00 0.01 0.01 0.00 0.00 0.00 0.01 0.02
0.00 0.00 0.00 0.00 0.00 0.00 0.00 0.00 0.00 0.00 0.00 0.00 0.00 0.00 0.00 0.00 0.01 0.01 0.00 0.00 0.00 0.00 0.00 0.01 0.02 0.01 0.00 0.01 0.03 0.02 0.00 0.00 0.00 0.00 0.00 0.00 0.00 0.00 0.00 0.00 0.01 0.01 0.01
0.00 0.00 0.00 0.00 0.00 0.00 0.00 0.00 0.00 0.00 0.00 0.00 0.01 0.01 0.01 0.03 0.04 0.01 0.01 0.01 0.01 0.00 0.00 0.01 0.02 0.01 0.03 0.07 0.20 0.13 0.02 0.02 0.01 0.00 0.00 0.00 0.00 0.00 0.01 0.01 0.01 0.01 0.01
0.00 0.00 0.00 0.00 0.00 0.00 0.00 0.00 0.00 0.00 0.01 0.00 0.01 0.03 0.05 0.05 0.02 0.00 0.00 0.01 0.00 0.00 0.02 0.06 0.08 0.04 0.11 0.14 0.15 0.11 0.02 0.01 0.01 0.00 0.01 0.00 0.00 0.00 0.01 0.01 0.01 0.01 0.01
0.00 0.00 0.00 0.00 0.00 0.00 0.00 0.00 0.00 0.00 0.00 0.00 0.01 0.01 0.02 0.03 0.02 0.01 0.00 0.00 0.01 0.03 0.05 0.06 0.10 0.07 0.05 0.05 0.04 0.02 0.00 0.00 0.01 0.01 0.02 0.01 0.00 0.00 0.01 0.01 0.01 0.01 0.01
0.00 0.00 0.00 0.00 0.00 0.00 0.00 0.00 0.00 0.00 0.00 0.00 0.00 0.01 0.01 0.02 0.01 0.00 0.00 0.00 0.00 0.01 0.04 0.06 0.03 0.05 0.04 0.02 0.01 0.00 0.00 0.00 0.00 0.00 0.01 0.01 0.00 0.00 0.00 0.01 0.01 0.01 0.01
0.00 0.00 0.00 0.00 0.00 0.00 0.00 0.00 0.00 0.00 0.00 0.00 0.00 0.00 0.00 0.00 0.00 0.01 0.01 0.02 0.01 0.01 0.02 0.04 0.03 0.06 0.04 0.03 0.01 0.00 0.00 0.00 0.00 0.00 0.00 0.00 0.00 0.00 0.00 0.01 0.01 0.02 0.02
0.00 0.00 0.00 0.00 0.00 0.00 0.00 0.00 0.00 0.00 0.00 0.00 0.00 0.00 0.00 0.00 0.02 0.03 0.03 0.03 0.03 0.02 0.03 0.04 0.05 0.05 0.05 0.04 0.03 0.02 0.01 0.00 0.00 0.00 0.00 0.00 0.00 0.00 0.00 0.01 0.02 0.02 0.02
0.00 0.00 0.00 0.00 0.00 0.00 0.00 0.00 0.00 0.00 0.00 0.00 0.00 0.00 0.01 0.01 0.04 0.07 0.06 0.04 0.07 0.06 0.07 0.10 0.08 0.10 0.13 0.10 0.07 0.04 0.02 0.02 0.01 0.00 0.00 0.00 0.00 0.00 0.01 0.02 0.02 0.02 0.02
0.00 0.00 0.00 0.00 0.00 0.00 0.00 0.00 0.00 0.00 0.00 0.01 0.01 0.02 0.02 0.04 0.06 0.11 0.10 0.11 0.14 0.13 0.14 0.10 0.15 0.24 0.23 0.20 0.12 0.06 0.02 0.02 0.01 0.01 0.02 0.01 0.00 0.00 0.00 0.01 0.01 0.02 0.02
0.00 0.00 0.01 0.01 0.02 0.03 0.03 0.03 0.02 0.01 0.01 0.01 0.03 0.05 0.06 0.10 0.13 0.16 0.12 0.16 0.18 0.18 0.17 0.18 0.22 0.24 0.24 0.26 0.16 0.10 0.07 0.06 0.03 0.01 0.01 0.00 0.00 0.00 0.00 0.00 0.02 0.03 0.03
0.00 0.01 0.04 0.07 0.10 0.11 0.12 0.09 0.10 0.08 0.08 0.07 0.08 0.08 0.11 0.13 0.16 0.17 0.15 0.20 0.20 0.19 0.19 0.21 0.27 0.32 0.30 0.32 0.28 0.21 0.12 0.05 0.03 0.02 0.01 0.00 0.00 0.00 0.00 0.00 0.01 0.03 0.04
0.01 0.03 0.07 0.11 0.15 0.16 0.17 0.16 0.15 0.16 0.11 0.11 0.12 0.12 0.11 0.13 0.16 0.18 0.20 0.19 0.21 0.22 0.23 0.26 0.32 0.34 0.32 0.40 0.40 0.37 0.27 0.14 0.06 0.03 0.04 0.04 0.01 0.00 0.00 0.00 0.01 0.02 0.03
0.02 0.03 0.06 0.11 0.14 0.17 0.20 0.20 0.16 0.17 0.11 0.13 0.17 0.16 0.15 0.15 0.16 0.17 0.17 0.18 0.20 0.22 0.23 0.25 0.31 0.34 0.34 0.40 0.43 0.41 0.34 0.25 0.16 0.09 0.06 0.03 0.02 0.02 0.01 0.01 0.00 0.02 0.05
0.01 0.01 0.03 0.07 0.11 0.13 0.17 0.19 0.16 0.16 0.13 0.16 0.23 0.22 0.18 0.15 0.17 0.17 0.18 0.19 0.19 0.19 0.21 0.24 0.30 0.35 0.34 0.31 0.36 0.37 0.33 0.28 0.22 0.13 0.08 0.06 0.03 0.03 0.03 0.02 0.01 0.02 0.06
0.00 0.01 0.02 0.04 0.06 0.08 0.10 0.12 0.12 0.11 0.12 0.14 0.19 0.18 0.15 0.14 0.13 0.11 0.13 0.15 0.16 0.17 0.19 0.23 0.27 0.31 0.33 0.33 0.34 0.35 0.32 0.29 0.25 0.16 0.10 0.09 0.06 0.04 0.03 0.03 0.04 0.05 0.07
0.00 0.00 0.01 0.02 0.03 0.05 0.07 0.08 0.08 0.08 0.11 0.13 0.15 0.16 0.17 0.16 0.13 0.11 0.12 0.13 0.13 0.17 0.20 0.23 0.25 0.27 0.29 0.30 0.29 0.30 0.27 0.24 0.23 0.19 0.11 0.10 0.09 0.05 0.03 0.05 0.06 0.07 0.07

GEFSSE_prec_meanprec_048.txt.gz
QPF
0.00 0.00 0.00 0.00 0.00 0.00 0.00 0.00 0.00 0.00 0.00 0.00 0.00 0.00 0.00 0.00 0.00 0.00 0.00 0.00 0.00 0.00 0.00 0.00 0.00 0.00 0.00 0.00 0.00 0.00 0.00 0.00 0.00 0.00 0.00 0.00 0.00 0.00 0.00 0.00 0.00 0.00 0.00
0.00 0.00 0.00 0.00 0.00 0.00 0.00 0.00 0.00 0.00 0.00 0.00 0.00 0.00 0.00 0.00 0.00 0.00 0.00 0.00 0.00 0.00 0.00 0.00 0.00 0.00 0.00 0.00 0.00 0.00 0.00 0.00 0.00 0.00 0.00 0.00 0.00 0.00 0.00 0.00 0.00 0.00 0.00
0.00 0.00 0.00 0.00 0.00 0.00 0.00 0.00 0.00 0.00 0.00 0.00 0.00 0.00 0.00 0.00 0.00 0.00 0.00 0.00 0.00 0.00 0.00 0.00 0.00 0.00 0.00 0.00 0.00 0.00 0.00 0.00 0.00 0.00 0.00 0.00 0.00 0.00 0.00 0.00 0.00 0.00 0.00
0.00 0.00 0.00 0.00 0.00 0.00 0.00 0.00 0.00 0.00 0.00 0.00 0.00 0.00 0.00 0.00 0.00 0.00 0.00 0.00 0.00 0.00 0.00 0.00 0.00 0.00 0.00 0.00 0.00 0.00 0.00 0.00 0.00 0.00 0.00 0.01 0.00 0.00 0.00 0.00 0.00 0.00 0.00
0.00 0.00 0.00 0.00 0.00 0.00 0.00 0.00 0.00 0.00 0.00 0.00 0.00 0.00 0.00 0.00 0.00 0.00 0.00 0.00 0.00 0.00 0.00 0.00 0.00 0.00 0.00 0.00 0.00 0.00 0.00 0.00 0.00 0.00 0.00 0.00 0.00 0.00 0.01 0.00 0.00 0.00 0.00
0.00 0.00 0.00 0.00 0.00 0.00 0.00 0.00 0.00 0.00 0.00 0.00 0.00 0.00 0.00 0.00 0.00 0.00 0.00 0.00 0.00 0.00 0.00 0.00 0.00 0.00 0.00 0.00 0.00 0.00 0.00 0.00 0.00 0.00 0.00 0.00 0.01 0.01 0.02 0.01 0.01 0.00 0.00
0.00 0.00 0.00 0.00 0.00 0.00 0.00 0.00 0.00 0.00 0.00 0.00 0.00 0.00 0.00 0.00 0.00 0.00 0.00 0.00 0.00 0.00 0.00 0.00 0.00 0.00 0.00 0.00 0.00 0.00 0.00 0.00 0.00 0.00 0.00 0.00 0.01 0.02 0.03 0.03 0.02 0.01 0.00
0.00 0.00 0.00 0.00 0.00 0.00 0.00 0.00 0.00 0.00 0.00 0.00 0.00 0.00 0.00 0.00 0.00 0.00 0.00 0.00 0.00 0.00 0.00 0.00 0.00 0.00 0.00 0.00 0.00 0.00 0.00 0.00 0.00 0.00 0.00 0.00 0.01 0.01 0.04 0.04 0.03 0.02 0.01
0.00 0.00 0.00 0.00 0.00 0.00 0.00 0.00 0.00 0.00 0.00 0.00 0.00 0.00 0.00 0.00 0.00 0.00 0.00 0.00 0.00 0.00 0.00 0.00 0.00 0.00 0.00 0.00 0.00 0.00 0.00 0.00 0.00 0.00 0.00 0.00 0.01 0.03 0.07 0.05 0.04 0.02 0.02
0.00 0.00 0.00 0.00 0.00 0.00 0.00 0.00 0.00 0.00 0.00 0.00 0.00 0.00 0.00 0.00 0.00 0.00 0.00 0.00 0.00 0.00 0.00 0.00 0.00 0.00 0.00 0.00 0.00 0.00 0.00 0.00 0.00 0.00 0.00 0.00 0.01 0.06 0.09 0.07 0.04 0.03 0.02
0.00 0.00 0.00 0.00 0.00 0.00 0.00 0.00 0.00 0.00 0.00 0.00 0.00 0.00 0.00 0.00 0.00 0.00 0.00 0.00 0.00 0.00 0.00 0.00 0.00 0.00 0.00 0.00 0.01 0.01 0.01 0.00 0.00 0.00 0.00 0.00 0.02 0.05 0.08 0.07 0.05 0.03 0.02
0.00 0.00 0.00 0.00 0.00 0.00 0.00 0.00 0.00 0.00 0.00 0.00 0.00 0.00 0.00 0.00 0.00 0.00 0.00 0.00 0.00 0.00 0.00 0.00 0.00 0.00 0.00 0.00 0.01 0.02 0.00 0.00 0.00 0.01 0.01 0.00 0.02 0.04 0.07 0.05 0.04 0.03 0.02
0.00 0.00 0.00 0.00 0.00 0.00 0.00 0.00 0.00 0.00 0.00 0.00 0.00 0.00 0.00 0.00 0.00 0.00 0.00 0.00 0.00 0.01 0.00 0.00 0.00 0.00 0.00 0.00 0.00 0.00 0.00 0.00 0.01 0.03 0.01 0.01 0.02 0.03 0.05 0.04 0.03 0.02 0.02
0.00 0.00 0.00 0.00 0.00 0.00 0.00 0.00 0.00 0.00 0.00 0.00 0.00 0.00 0.00 0.00 0.00 0.00 0.00 0.00 0.00 0.00 0.00 0.00 0.00 0.00 0.00 0.00 0.00 0.01 0.01 0.01 0.03 0.03 0.02 0.01 0.01 0.02 0.04 0.04 0.03 0.02 0.02
0.00 0.00 0.00 0.00 0.00 0.00 0.00 0.00 0.00 0.00 0.00 0.00 0.00 0.00 0.00 0.00 0.00 0.00 0.00 0.00 0.00 0.00 0.00 0.00 0.00 0.00 0.01 0.01 0.01 0.02 0.02 0.03 0.04 0.04 0.03 0.01 0.02 0.02 0.03 0.05 0.05 0.04 0.04
0.00 0.00 0.00 0.00 0.00 0.00 0.00 0.00 0.00 0.00 0.00 0.00 0.00 0.00 0.00 0.00 0.00 0.00 0.00 0.00 0.00 0.00 0.01 0.01 0.01 0.02 0.03 0.03 0.04 0.04 0.04 0.05 0.05 0.05 0.04 0.03 0.03 0.02 0.03 0.06 0.08 0.08 0.07
0.01 0.01 0.01 0.00 0.01 0.00 0.00 0.00 0.00 0.00 0.00 0.00 0.00 0.00 0.00 0.00 0.00 0.00 0.00 0.00 0.00 0.01 0.01 0.02 0.02 0.03 0.04 0.05 0.06 0.06 0.07 0.08 0.07 0.08 0.08 0.09 0.07 0.05 0.05 0.06 0.08 0.09 0.08
0.04 0.03 0.03 0.02 0.02 0.02 0.03 0.03 0.02 0.02 0.01 0.01 0.01 0.00 0.01 0.01 0.01 0.01 0.01 0.01 0.01 0.02 0.04 0.06 0.08 0.08 0.07 0.08 0.08 0.09 0.09 0.10 0.10 0.13 0.15 0.16 0.13 0.08 0.07 0.07 0.08 0.07 0.10
0.07 0.07 0.06 0.07 0.08 0.11 0.15 0.16 0.08 0.04 0.03 0.03 0.03 0.03 0.03 0.03 0.03 0.03 0.03 0.03 0.04 0.05 0.06 0.07 0.08 0.08 0.09 0.10 0.10 0.09 0.09 0.08 0.08 0.10 0.11 0.13 0.13 0.12 0.10 0.07 0.07 0.09 0.11
0.10 0.09 0.09 0.14 0.24 0.33 0.37 0.30 0.17 0.12 0.09 0.07 0.06 0.06 0.07 0.08 0.09 0.09 0.07 0.07 0.08 0.08 0.07 0.08 0.09 0.09 0.10 0.10 0.10 0.08 0.07 0.07 0.08 0.08 0.09 0.10 0.08 0.09 0.10 0.11 0.09 0.07 0.08
0.11 0.12 0.15 0.24 0.37 0.46 0.43 0.34 0.27 0.22 0.18 0.12 0.10 0.11 0.12 0.11 0.15 0.17 0.15 0.14 0.15 0.14 0.12 0.12 0.12 0.12 0.11 0.12 0.12 0.09 0.06 0.05 0.05 0.06 0.07 0.07 0.08 0.09 0.09 0.10 0.11 0.08 0.06
0.08 0.13 0.16 0.22 0.32 0.39 0.36 0.31 0.26 0.22 0.16 0.14 0.16 0.17 0.15 0.14 0.16 0.18 0.19 0.17 0.19 0.18 0.13 0.12 0.13 0.12 0.10 0.14 0.17 0.17 0.12 0.09 0.07 0.05 0.07 0.11 0.17 0.17 0.13 0.10 0.09 0.09 0.08
0.05 0.08 0.11 0.13 0.17 0.20 0.19 0.19 0.20 0.21 0.16 0.16 0.18 0.20 0.19 0.18 0.17 0.20 0.20 0.20 0.19 0.19 0.15 0.13 0.15 0.15 0.14 0.16 0.18 0.21 0.18 0.13 0.11 0.07 0.14 0.20 0.23 0.25 0.22 0.15 0.11 0.09 0.08
0.03 0.05 0.05 0.04 0.06 0.06 0.07 0.10 0.13 0.14 0.13 0.15 0.19 0.18 0.15 0.16 0.16 0.18 0.18 0.19 0.20 0.19 0.15 0.14 0.16 0.19 0.22 0.20 0.21 0.20 0.19 0.16 0.16 0.11 0.17 0.26 0.26 0.25 0.25 0.20 0.15 0.11 0.08
0.01 0.01 0.02 0.02 0.02 0.02 0.03 0.05 0.06 0.06 0.07 0.09 0.12 0.11 0.10 0.12 0.14 0.15 0.17 0.18 0.16 0.17 0.17 0.19 0.21 0.22 0.23 0.21 0.20 0.23 0.25 0.23 0.23 0.18 0.14 0.14 0.19 0.22 0.22 0.17 0.14 0.11 0.05
0.00 0.00 0.01 0.01 0.01 0.01 0.01 0.01 0.02 0.02 0.04 0.05 0.06 0.07 0.07 0.09 0.10 0.09 0.11 0.13 0.15 0.16 0.16 0.17 0.20 0.21 0.21 0.22 0.23 0.22 0.23 0.24 0.23 0.22 0.18 0.13 0.10 0.08 0.10 0.11 0.11 0.08 0.04

GEFSSE_prec_meanprec_054.txt.gz
QPF
0.00 0.00 0.00 0.00 0.00 0.00 0.00 0.00 0.00 0.00 0.00 0.00 0.00 0.00 0.00 0.00 0.00 0.00 0.00 0.00 0.00 0.00 0.00 0.00 0.00 0.00 0.00 0.00 0.00 0.00 0.00 0.00 0.00 0.00 0.00 0.00 0.00 0.00 0.00 0.00 0.00 0.00 0.00
0.00 0.00 0.00 0.00 0.00 0.00 0.00 0.00 0.00 0.00 0.00 0.00 0.00 0.00 0.00 0.00 0.00 0.00 0.00 0.00 0.00 0.00 0.00 0.00 0.00 0.00 0.00 0.00 0.00 0.00 0.00 0.00 0.00 0.00 0.00 0.00 0.00 0.00 0.00 0.00 0.00 0.00 0.00
0.00 0.00 0.00 0.00 0.00 0.00 0.00 0.00 0.00 0.00 0.00 0.00 0.00 0.00 0.00 0.00 0.00 0.00 0.00 0.00 0.00 0.00 0.00 0.00 0.00 0.00 0.00 0.00 0.00 0.00 0.00 0.00 0.00 0.00 0.00 0.00 0.00 0.00 0.00 0.00 0.00 0.00 0.00
0.00 0.00 0.00 0.00 0.00 0.00 0.00 0.00 0.00 0.00 0.00 0.00 0.00 0.00 0.00 0.00 0.00 0.00 0.00 0.00 0.00 0.00 0.00 0.00 0.00 0.00 0.00 0.00 0.00 0.00 0.00 0.00 0.00 0.00 0.00 0.00 0.00 0.00 0.01 0.01 0.01 0.01 0.00
0.00 0.00 0.00 0.00 0.00 0.00 0.00 0.00 0.00 0.00 0.00 0.00 0.00 0.00 0.00 0.00 0.00 0.00 0.00 0.00 0.00 0.00 0.00 0.00 0.00 0.00 0.00 0.00 0.00 0.00 0.00 0.00 0.00 0.00 0.00 0.00 0.00 0.00 0.01 0.02 0.03 0.03 0.01
0.00 0.00 0.00 0.00 0.00 0.00 0.00 0.00 0.00 0.00 0.00 0.00 0.00 0.00 0.00 0.00 0.00 0.00 0.00 0.00 0.00 0.00 0.00 0.00 0.00 0.00 0.00 0.00 0.00 0.00 0.00 0.00 0.00 0.00 0.00 0.00 0.00 0.00 0.02 0.05 0.06 0.05 0.04
0.00 0.00 0.00 0.00 0.00 0.00 0.00 0.00 0.00 0.00 0.00 0.00 0.00 0.00 0.00 0.00 0.00 0.00 0.00 0.00 0.00 0.00 0.00 0.00 0.00 0.00 0.00 0.00 0.00 0.00 0.00 0.00 0.00 0.00 0.00 0.00 0.00 0.00 0.02 0.06 0.08 0.08 0.06
0.00 0.00 0.00 0.00 0.00 0.00 0.00 0.00 0.00 0.00 0.00 0.00 0.00 0.00 0.00 0.00 0.00 0.00 0.00 0.00 0.00 0.00 0.00 0.00 0.00 0.00 0.00 0.00 0.00 0.00 0.00 0.00 0.00 0.00 0.00 0.00 0.00 0.00 0.01 0.05 0.07 0.07 0.07
0.00 0.00 0.00 0.00 0.00 0.00 0.00 0.00 0.00 0.00 0.00 0.00 0.00 0.00 0.00 0.00 0.00 0.00 0.00 0.00 0.00 0.00 0.00 0.00 0.00 0.00 0.00 0.00 0.00 0.00 0.00 0.00 0.00 0.00 0.00 0.00 0.00 0.00 0.01 0.05 0.07 0.08 0.08
0.00 0.00 0.00 0.00 0.00 0.00 0.00 0.00 0.00 0.00 0.00 0.00 0.00 0.00 0.00 0.00 0.00 0.00 0.00 0.00 0.00 0.00 0.00 0.00 0.00 0.00 0.00 0.00 0.00 0.00 0.00 0.00 0.00 0.00 0.00 0.00 0.00 0.00 0.02 0.05 0.08 0.10 0.09
0.00 0.00 0.00 0.00 0.00 0.00 0.00 0.00 0.00 0.00 0.00 0.00 0.00 0.00 0.00 0.00 0.00 0.00 0.00 0.00 0.00 0.00 0.01 0.01 0.00 0.00 0.00 0.01 0.01 0.01 0.01 0.00 0.00 0.00 0.00 0.00 0.00 0.01 0.04 0.07 0.09 0.10 0.10
0.00 0.00 0.00 0.00 0.00 0.00 0.00 0.00 0.00 0.00 0.00 0.00 0.00 0.00 0.00 0.00 0.00 0.00 0.00 0.00 0.00 0.00 0.01 0.01 0.01 0.01 0.01 0.01 0.01 0.01 0.00 0.00 0.00 0.00 0.00 0.00 0.01 0.02 0.05 0.07 0.08 0.11 0.12
0.00 0.00 0.00 0.00 0.00 0.00 0.00 0.00 0.00 0.00 0.00 0.00 0.00 0.00 0.00 0.00 0.00 0.00 0.00 0.00 0.00 0.00 0.01 0.01 0.01 0.01 0.01 0.01 0.00 0.00 0.00 0.00 0.00 0.01 0.01 0.00 0.03 0.07 0.11 0.11 0.10 0.10 0.10
0.00 0.00 0.00 0.00 0.00 0.00 0.01 0.01 0.00 0.00 0.00 0.00 0.00 0.00 0.00 0.00 0.00 0.00 0.00 0.00 0.00 0.00 0.00 0.01 0.01 0.01 0.01 0.01 0.01 0.00 0.01 0.02 0.01 0.01 0.01 0.01 0.03 0.07 0.13 0.14 0.12 0.12 0.10
0.00 0.00 0.01 0.01 0.01 0.02 0.02 0.02 0.01 0.01 0.00 0.00 0.01 0.01 0.01 0.00 0.00 0.00 0.00 0.00 0.00 0.00 0.01 0.01 0.02 0.02 0.02 0.01 0.01 0.01 0.01 0.02 0.01 0.02 0.02 0.01 0.03 0.06 0.10 0.14 0.14 0.14 0.14
0.00 0.01 0.02 0.03 0.04 0.05 0.05 0.05 0.05 0.04 0.03 0.03 0.02 0.02 0.02 0.01 0.01 0.01 0.02 0.02 0.02 0.02 0.03 0.04 0.05 0.05 0.04 0.04 0.03 0.04 0.03 0.02 0.03 0.03 0.03 0.03 0.04 0.04 0.07 0.12 0.14 0.16 0.16
0.00 0.01 0.04 0.06 0.07 0.09 0.11 0.13 0.17 0.18 0.16 0.11 0.08 0.07 0.06 0.05 0.04 0.04 0.04 0.05 0.05 0.06 0.07 0.08 0.08 0.08 0.08 0.07 0.07 0.08 0.07 0.05 0.05 0.04 0.05 0.05 0.06 0.05 0.06 0.10 0.14 0.16 0.17
0.01 0.01 0.05 0.07 0.10 0.16 0.22 0.33 0.40 0.35 0.24 0.16 0.14 0.13 0.12 0.11 0.10 0.10 0.09 0.09 0.14 0.16 0.14 0.14 0.13 0.12 0.11 0.11 0.10 0.09 0.07 0.06 0.05 0.05 0.06 0.08 0.09 0.08 0.07 0.09 0.12 0.14 0.17
0.02 0.03 0.05 0.08 0.12 0.18 0.26 0.39 0.40 0.31 0.26 0.21 0.18 0.15 0.14 0.15 0.18 0.20 0.17 0.17 0.24 0.24 0.20 0.22 0.19 0.18 0.15 0.14 0.13 0.09 0.07 0.05 0.05 0.05 0.04 0.06 0.07 0.07 0.06 0.05 0.06 0.09 0.12
0.02 0.03 0.07 0.09 0.10 0.15 0.23 0.29 0.30 0.26 0.25 0.24 0.20 0.17 0.16 0.18 0.22 0.25 0.21 0.21 0.30 0.29 0.25 0.30 0.31 0.26 0.19 0.18 0.17 0.09 0.07 0.06 0.05 0.04 0.04 0.05 0.05 0.04 0.04 0.04 0.05 0.05 0.07
0.03 0.03 0.04 0.05 0.07 0.13 0.16 0.18 0.21 0.17 0.16 0.18 0.19 0.19 0.17 0.19 0.23 0.27 0.23 0.22 0.27 0.27 0.25 0.32 0.35 0.29 0.22 0.28 0.25 0.12 0.07 0.07 0.05 0.04 0.04 0.04 0.04 0.04 0.04 0.04 0.05 0.05 0.04
0.02 0.02 0.02 0.03 0.04 0.07 0.10 0.11 0.11 0.10 0.09 0.11 0.14 0.14 0.15 0.17 0.21 0.24 0.22 0.21 0.25 0.26 0.23 0.26 0.32 0.28 0.22 0.30 0.31 0.23 0.11 0.06 0.05 0.04 0.03 0.03 0.03 0.05 0.05 0.05 0.06 0.07 0.08
0.01 0.01 0.01 0.01 0.03 0.04 0.05 0.05 0.05 0.05 0.04 0.06 0.09 0.09 0.11 0.13 0.15 0.17 0.15 0.17 0.19 0.23 0.19 0.22 0.29 0.28 0.23 0.24 0.27 0.28 0.17 0.08 0.06 0.04 0.03 0.02 0.03 0.04 0.06 0.07 0.07 0.09 0.10
0.01 0.01 0.01 0.01 0.01 0.02 0.03 0.03 0.03 0.03 0.02 0.03 0.04 0.04 0.04 0.05 0.07 0.09 0.11 0.13 0.14 0.16 0.16 0.19 0.28 0.29 0.27 0.21 0.21 0.22 0.20 0.14 0.10 0.06 0.04 0.04 0.04 0.04 0.05 0.06 0.06 0.08 0.09
0.00 0.00 0.00 0.01 0.01 0.01 0.01 0.02 0.01 0.01 0.01 0.01 0.01 0.01 0.02 0.02 0.03 0.05 0.08 0.10 0.11 0.13 0.13 0.14 0.16 0.18 0.18 0.17 0.15 0.15 0.15 0.13 0.10 0.07 0.04 0.03 0.04 0.03 0.04 0.05 0.06 0.08 0.08
0.00 0.00 0.00 0.00 0.00 0.00 0.00 0.00 0.00 0.00 0.00 0.00 0.00 0.00 0.00 0.01 0.01 0.02 0.03 0.04 0.05 0.06 0.06 0.06 0.09 0.10 0.11 0.11 0.12 0.12 0.11 0.10 0.09 0.10 0.08 0.06 0.05 0.05 0.05 0.06 0.08 0.09 0.08

GEFSSE_prec_meanprec_060.txt.gz
QPF
0.00 0.00 0.00 0.00 0.00 0.00 0.00 0.00 0.00 0.00 0.00 0.00 0.00 0.00 0.00 0.00 0.00 0.00 0.00 0.00 0.00 0.00 0.00 0.00 0.00 0.00 0.00 0.00 0.00 0.00 0.00 0.00 0.00 0.00 0.00 0.00 0.00 0.00 0.00 0.00 0.01 0.02 0.01
0.00 0.00 0.00 0.00 0.00 0.00 0.00 0.00 0.00 0.00 0.00 0.00 0.00 0.00 0.00 0.00 0.00 0.00 0.00 0.00 0.00 0.00 0.00 0.00 0.00 0.00 0.00 0.00 0.00 0.00 0.00 0.00 0.00 0.00 0.00 0.00 0.00 0.00 0.00 0.00 0.01 0.01 0.00
0.00 0.00 0.00 0.00 0.00 0.00 0.00 0.00 0.00 0.00 0.00 0.00 0.00 0.00 0.00 0.00 0.00 0.00 0.00 0.00 0.00 0.00 0.00 0.00 0.00 0.00 0.00 0.00 0.00 0.00 0.00 0.00 0.00 0.00 0.00 0.00 0.00 0.00 0.00 0.00 0.00 0.00 0.00
0.00 0.00 0.00 0.00 0.00 0.00 0.00 0.00 0.00 0.00 0.00 0.00 0.00 0.00 0.00 0.00 0.00 0.00 0.00 0.00 0.00 0.00 0.00 0.00 0.00 0.00 0.00 0.00 0.00 0.00 0.00 0.00 0.00 0.00 0.00 0.00 0.00 0.00 0.00 0.00 0.00 0.00 0.00
0.00 0.00 0.00 0.00 0.00 0.00 0.00 0.00 0.00 0.00 0.00 0.00 0.00 0.00 0.00 0.00 0.00 0.00 0.00 0.00 0.00 0.00 0.00 0.00 0.00 0.00 0.00 0.00 0.00 0.00 0.00 0.00 0.00 0.00 0.00 0.00 0.00 0.00 0.01 0.01 0.02 0.02 0.01
0.00 0.00 0.00 0.00 0.00 0.00 0.00 0.00 0.00 0.00 0.00 0.00 0.00 0.00 0.00 0.00 0.00 0.00 0.00 0.00 0.00 0.00 0.00 0.00 0.00 0.00 0.00 0.00 0.00 0.00 0.00 0.00 0.00 0.00 0.00 0.00 0.00 0.00 0.01 0.04 0.07 0.08 0.06
0.00 0.00 0.00 0.00 0.00 0.00 0.00 0.00 0.00 0.00 0.00 0.00 0.00 0.00 0.00 0.00 0.00 0.00 0.00 0.00 0.00 0.00 0.00 0.00 0.00 0.00 0.00 0.00 0.00 0.00 0.00 0.00 0.00 0.00 0.00 0.00 0.00 0.00 0.01 0.04 0.11 0.12 0.09
0.00 0.00 0.00 0.00 0.00 0.00 0.00 0.00 0.00 0.00 0.00 0.00 0.00 0.00 0.00 0.00 0.00 0.00 0.00 0.00 0.00 0.00 0.00 0.00 0.00 0.00 0.00 0.00 0.00 0.00 0.00 0.00 0.00 0.00 0.00 0.00 0.00 0.00 0.00 0.03 0.09 0.12 0.10
0.00 0.00 0.00 0.00 0.00 0.00 0.00 0.00 0.00 0.00 0.00 0.00 0.00 0.00 0.00 0.00 0.00 0.00 0.00 0.00 0.00 0.00 0.00 0.00 0.00 0.00 0.01 0.01 0.01 0.01 0.00 0.00 0.00 0.00 0.00 0.00 0.00 0.00 0.00 0.02 0.07 0.11 0.12
0.00 0.00 0.00 0.00 0.00 0.00 0.00 0.00 0.00 0.00 0.00 0.00 0.00 0.00 0.00 0.00 0.00 0.00 0.00 0.00 0.00 0.01 0.01 0.01 0.01 0.01 0.01 0.01 0.01 0.01 0.01 0.01 0.01 0.01 0.02 0.01 0.00 0.00 0.00 0.01 0.04 0.09 0.11
0.00 0.00 0.00 0.00 0.00 0.00 0.00 0.00 0.00 0.00 0.00 0.00 0.00 0.00 0.00 0.01 0.01 0.00 0.00 0.00 0.00 0.00 0.01 0.01 0.01 0.01 0.01 0.01 0.01 0.02 0.02 0.03 0.03 0.02 0.02 0.01 0.01 0.01 0.01 0.01 0.03 0.07 0.10
0.00 0.00 0.00 0.00 0.00 0.00 0.00 0.00 0.00 0.00 0.00 0.00 0.01 0.01 0.01 0.01 0.01 0.00 0.00 0.00 0.00 0.01 0.01 0.01 0.02 0.02 0.03 0.03 0.05 0.05 0.04 0.03 0.04 0.02 0.03 0.02 0.02 0.02 0.03 0.03 0.03 0.05 0.08
0.00 0.00 0.00 0.00 0.00 0.00 0.00 0.00 0.00 0.00 0.01 0.00 0.00 0.01 0.01 0.01 0.01 0.00 0.00 0.00 0.00 0.00 0.01 0.02 0.04 0.04 0.07 0.07 0.07 0.07 0.04 0.04 0.05 0.04 0.04 0.02 0.03 0.05 0.08 0.07 0.05 0.06 0.08
0.00 0.00 0.00 0.00 0.00 0.00 0.00 0.00 0.00 0.00 0.00 0.00 0.00 0.01 0.01 0.01 0.01 0.00 0.00 0.01 0.01 0.01 0.02 0.03 0.05 0.06 0.07 0.09 0.10 0.09 0.07 0.08 0.07 0.07 0.07 0.03 0.04 0.06 0.09 0.09 0.09 0.10 0.10
0.00 0.01 0.01 0.00 0.00 0.00 0.01 0.01 0.01 0.01 0.00 0.00 0.00 0.01 0.00 0.01 0.01 0.01 0.01 0.02 0.02 0.02 0.04 0.05 0.05 0.07 0.11 0.11 0.10 0.10 0.10 0.11 0.11 0.11 0.08 0.05 0.05 0.05 0.08 0.10 0.09 0.10 0.10
0.00 0.00 0.01 0.01 0.01 0.01 0.01 0.01 0.02 0.02 0.02 0.02 0.01 0.01 0.01 0.01 0.01 0.03 0.03 0.04 0.04 0.05 0.08 0.10 0.08 0.11 0.13 0.14 0.11 0.12 0.11 0.13 0.13 0.11 0.09 0.09 0.06 0.05 0.07 0.09 0.10 0.10 0.10
0.00 0.01 0.01 0.02 0.02 0.02 0.02 0.03 0.03 0.04 0.03 0.02 0.02 0.03 0.04 0.04 0.05 0.07 0.07 0.07 0.08 0.11 0.15 0.14 0.13 0.14 0.12 0.13 0.13 0.15 0.13 0.13 0.11 0.11 0.10 0.09 0.07 0.04 0.03 0.05 0.08 0.09 0.09
0.00 0.01 0.01 0.02 0.03 0.04 0.04 0.03 0.03 0.04 0.03 0.03 0.05 0.07 0.10 0.11 0.13 0.13 0.11 0.11 0.15 0.19 0.19 0.17 0.15 0.16 0.17 0.18 0.16 0.15 0.14 0.12 0.08 0.09 0.09 0.08 0.09 0.05 0.04 0.04 0.05 0.06 0.07
0.00 0.01 0.01 0.01 0.02 0.03 0.03 0.03 0.03 0.03 0.04 0.06 0.06 0.07 0.11 0.14 0.15 0.15 0.12 0.12 0.15 0.18 0.18 0.16 0.19 0.21 0.22 0.22 0.21 0.16 0.13 0.10 0.08 0.07 0.06 0.07 0.08 0.06 0.04 0.03 0.02 0.03 0.04
0.00 0.00 0.01 0.01 0.02 0.03 0.02 0.02 0.02 0.03 0.05 0.06 0.07 0.07 0.10 0.11 0.13 0.14 0.11 0.09 0.15 0.17 0.14 0.15 0.18 0.23 0.24 0.25 0.23 0.15 0.10 0.07 0.07 0.06 0.05 0.04 0.04 0.03 0.03 0.04 0.04 0.02 0.02
0.01 0.01 0.01 0.02 0.03 0.03 0.04 0.04 0.03 0.03 0.04 0.04 0.05 0.05 0.06 0.07 0.09 0.11 0.11 0.13 0.16 0.16 0.14 0.19 0.23 0.23 0.21 0.27 0.25 0.16 0.11 0.08 0.07 0.05 0.05 0.04 0.03 0.03 0.03 0.03 0.03 0.04 0.03
0.02 0.01 0.00 0.01 0.02 0.03 0.03 0.02 0.02 0.03 0.03 0.04 0.04 0.03 0.04 0.04 0.06 0.07 0.09 0.09 0.12 0.13 0.14 0.17 0.20 0.20 0.17 0.25 0.27 0.24 0.16 0.12 0.08 0.06 0.04 0.04 0.03 0.03 0.02 0.02 0.03 0.04 0.03
0.00 0.00 0.00 0.01 0.02 0.01 0.01 0.01 0.02 0.03 0.02 0.02 0.02 0.02 0.02 0.02 0.03 0.04 0.04 0.05 0.06 0.09 0.09 0.11 0.15 0.18 0.17 0.19 0.24 0.29 0.23 0.15 0.14 0.09 0.07 0.04 0.03 0.03 0.02 0.03 0.02 0.03 0.04
0.00 0.00 0.00 0.00 0.00 0.01 0.01 0.02 0.03 0.02 0.02 0.02 0.01 0.01 0.00 0.00 0.00 0.01 0.01 0.01 0.02 0.04 0.05 0.06 0.10 0.13 0.17 0.16 0.18 0.19 0.21 0.24 0.22 0.14 0.08 0.06 0.05 0.04 0.03 0.03 0.03 0.04 0.05
0.00 0.00 0.00 0.00 0.00 0.00 0.01 0.01 0.02 0.01 0.01 0.00 0.00 0.00 0.00 0.00 0.00 0.00 0.00 0.00 0.01 0.02 0.03 0.03 0.04 0.07 0.09 0.11 0.13 0.13 0.13 0.15 0.14 0.12 0.08 0.06 0.06 0.05 0.04 0.04 0.04 0.05 0.06
0.00 0.00 0.00 0.00 0.00 0.00 0.01 0.01 0.01 0.01 0.01 0.00 0.00 0.00 0.00 0.00 0.00 0.00 0.00 0.00 0.01 0.01 0.01 0.01 0.02 0.03 0.05 0.06 0.07 0.09 0.09 0.09 0.08 0.08 0.08 0.08 0.08 0.08 0.06 0.04 0.04 0.05 0.06

GEFSSE_prec_meanprec_066.txt.gz
QPF
0.00 0.00 0.00 0.00 0.00 0.00 0.00 0.00 0.00 0.00 0.00 0.00 0.00 0.00 0.00 0.00 0.00 0.00 0.00 0.00 0.00 0.00 0.00 0.00 0.00 0.00 0.00 0.00 0.00 0.00 0.00 0.00 0.00 0.00 0.00 0.00 0.00 0.00 0.00 0.00 0.05 0.05 0.01
0.00 0.00 0.00 0.00 0.00 0.00 0.00 0.00 0.00 0.00 0.00 0.00 0.00 0.00 0.00 0.00 0.00 0.00 0.00 0.00 0.00 0.00 0.00 0.00 0.00 0.00 0.00 0.00 0.00 0.00 0.00 0.00 0.00 0.00 0.00 0.00 0.00 0.00 0.00 0.01 0.06 0.04 0.00
0.00 0.00 0.00 0.00 0.00 0.00 0.00 0.00 0.00 0.00 0.00 0.00 0.00 0.00 0.00 0.00 0.00 0.00 0.00 0.00 0.00 0.00 0.00 0.00 0.00 0.00 0.00 0.00 0.00 0.00 0.00 0.00 0.00 0.00 0.02 0.02 0.00 0.00 0.00 0.00 0.01 0.01 0.00
0.00 0.00 0.00 0.00 0.00 0.00 0.00 0.00 0.00 0.00 0.00 0.00 0.00 0.00 0.00 0.00 0.00 0.00 0.00 0.00 0.00 0.00 0.00 0.00 0.00 0.00 0.00 0.00 0.00 0.00 0.00 0.00 0.00 0.00 0.03 0.05 0.01 0.00 0.00 0.00 0.00 0.00 0.00
0.00 0.00 0.00 0.00 0.00 0.00 0.00 0.00 0.00 0.00 0.00 0.00 0.00 0.00 0.00 0.00 0.00 0.00 0.00 0.00 0.00 0.00 0.00 0.00 0.00 0.00 0.00 0.00 0.00 0.00 0.00 0.00 0.00 0.00 0.01 0.02 0.01 0.01 0.00 0.00 0.00 0.01 0.00
0.00 0.00 0.00 0.00 0.00 0.00 0.00 0.00 0.00 0.00 0.00 0.00 0.00 0.00 0.00 0.00 0.00 0.00 0.00 0.00 0.00 0.00 0.00 0.00 0.00 0.00 0.00 0.00 0.00 0.00 0.00 0.00 0.00 0.00 0.00 0.00 0.02 0.02 0.00 0.01 0.01 0.02 0.03
0.00 0.00 0.00 0.00 0.00 0.00 0.00 0.00 0.00 0.00 0.00 0.00 0.00 0.00 0.00 0.00 0.00 0.00 0.00 0.00 0.00 0.00 0.00 0.00 0.00 0.00 0.00 0.00 0.00 0.00 0.00 0.00 0.00 0.00 0.00 0.00 0.01 0.01 0.00 0.01 0.03 0.04 0.04
0.00 0.00 0.00 0.00 0.00 0.00 0.00 0.00 0.00 0.00 0.00 0.00 0.00 0.00 0.00 0.00 0.00 0.00 0.00 0.00 0.00 0.00 0.00 0.00 0.00 0.00 0.00 0.00 0.00 0.00 0.00 0.00 0.00 0.00 0.00 0.00 0.01 0.00 0.00 0.00 0.02 0.04 0.05
0.00 0.00 0.00 0.00 0.00 0.00 0.00 0.00 0.00 0.00 0.00 0.00 0.00 0.00 0.00 0.00 0.00 0.00 0.00 0.00 0.00 0.00 0.00 0.00 0.00 0.00 0.00 0.00 0.00 0.00 0.00 0.00 0.00 0.00 0.00 0.01 0.01 0.00 0.00 0.00 0.01 0.03 0.05
0.00 0.00 0.00 0.00 0.00 0.00 0.00 0.00 0.00 0.00 0.00 0.00 0.00 0.00 0.00 0.00 0.00 0.00 0.00 0.00 0.00 0.00 0.00 0.00 0.00 0.00 0.00 0.00 0.00 0.00 0.00 0.00 0.00 0.00 0.01 0.01 0.01 0.01 0.00 0.00 0.00 0.01 0.03
0.00 0.00 0.00 0.00 0.00 0.00 0.00 0.00 0.00 0.00 0.00 0.00 0.00 0.00 0.00 0.00 0.01 0.02 0.02 0.02 0.01 0.00 0.00 0.00 0.01 0.01 0.01 0.00 0.01 0.02 0.01 0.00 0.01 0.01 0.01 0.01 0.01 0.01 0.01 0.00 0.00 0.00 0.01
0.00 0.00 0.00 0.00 0.00 0.00 0.00 0.00 0.00 0.00 0.01 0.00 0.00 0.02 0.03 0.04 0.03 0.02 0.03 0.03 0.01 0.01 0.00 0.00 0.01 0.01 0.01 0.01 0.06 0.11 0.02 0.01 0.01 0.02 0.03 0.02 0.03 0.03 0.03 0.02 0.01 0.00 0.01
0.00 0.00 0.00 0.00 0.00 0.00 0.00 0.00 0.00 0.00 0.01 0.01 0.01 0.03 0.05 0.05 0.04 0.01 0.02 0.04 0.05 0.04 0.02 0.02 0.03 0.02 0.03 0.05 0.08 0.11 0.02 0.02 0.03 0.06 0.11 0.12 0.06 0.05 0.04 0.03 0.02 0.02 0.02
0.00 0.00 0.00 0.00 0.00 0.00 0.00 0.00 0.00 0.00 0.00 0.00 0.01 0.03 0.04 0.06 0.04 0.02 0.02 0.02 0.06 0.06 0.09 0.08 0.08 0.06 0.06 0.06 0.06 0.06 0.05 0.04 0.04 0.05 0.09 0.10 0.06 0.05 0.04 0.03 0.03 0.03 0.02
0.00 0.00 0.00 0.00 0.00 0.00 0.00 0.00 0.00 0.00 0.00 0.00 0.00 0.01 0.02 0.04 0.04 0.04 0.05 0.05 0.03 0.04 0.08 0.11 0.09 0.10 0.08 0.07 0.05 0.06 0.05 0.05 0.07 0.07 0.07 0.08 0.04 0.04 0.04 0.04 0.04 0.03 0.03
0.00 0.00 0.00 0.00 0.00 0.00 0.00 0.00 0.00 0.00 0.00 0.00 0.00 0.00 0.01 0.03 0.05 0.07 0.09 0.11 0.09 0.09 0.10 0.10 0.09 0.13 0.11 0.11 0.07 0.06 0.05 0.04 0.05 0.05 0.06 0.08 0.07 0.05 0.05 0.06 0.05 0.04 0.04
0.00 0.01 0.00 0.00 0.00 0.00 0.00 0.00 0.01 0.00 0.01 0.01 0.02 0.02 0.02 0.04 0.08 0.09 0.10 0.11 0.13 0.15 0.16 0.13 0.11 0.14 0.14 0.14 0.15 0.13 0.10 0.08 0.07 0.07 0.06 0.05 0.05 0.06 0.07 0.07 0.06 0.05 0.04
0.00 0.01 0.00 0.00 0.00 0.00 0.00 0.01 0.01 0.00 0.01 0.01 0.02 0.02 0.03 0.05 0.09 0.10 0.10 0.13 0.19 0.18 0.17 0.19 0.16 0.18 0.22 0.24 0.21 0.16 0.14 0.15 0.12 0.09 0.07 0.07 0.06 0.06 0.09 0.12 0.09 0.06 0.05
0.02 0.02 0.01 0.01 0.01 0.01 0.01 0.01 0.01 0.01 0.01 0.01 0.01 0.03 0.03 0.05 0.07 0.09 0.09 0.11 0.14 0.14 0.15 0.15 0.20 0.23 0.24 0.26 0.26 0.21 0.17 0.15 0.16 0.16 0.13 0.09 0.09 0.10 0.11 0.10 0.10 0.08 0.06
0.03 0.02 0.02 0.02 0.02 0.02 0.02 0.02 0.02 0.01 0.02 0.01 0.01 0.02 0.02 0.02 0.03 0.05 0.07 0.08 0.10 0.11 0.11 0.13 0.15 0.19 0.20 0.22 0.23 0.22 0.21 0.15 0.14 0.12 0.10 0.09 0.11 0.12 0.10 0.09 0.11 0.07 0.06
0.05 0.04 0.03 0.02 0.03 0.03 0.04 0.03 0.02 0.02 0.01 0.01 0.01 0.01 0.01 0.01 0.02 0.03 0.04 0.06 0.06 0.07 0.07 0.09 0.12 0.13 0.15 0.21 0.22 0.19 0.16 0.15 0.14 0.11 0.09 0.08 0.09 0.10 0.10 0.10 0.11 0.09 0.10
0.09 0.07 0.04 0.04 0.05 0.04 0.04 0.03 0.03 0.02 0.01 0.01 0.00 0.01 0.01 0.01 0.01 0.02 0.03 0.03 0.04 0.05 0.05 0.07 0.09 0.09 0.09 0.18 0.17 0.16 0.14 0.12 0.09 0.07 0.12 0.13 0.08 0.07 0.09 0.13 0.14 0.13 0.10
0.11 0.06 0.05 0.06 0.06 0.04 0.04 0.03 0.03 0.02 0.01 0.02 0.01 0.01 0.00 0.00 0.01 0.02 0.02 0.03 0.03 0.03 0.03 0.04 0.05 0.06 0.06 0.10 0.13 0.14 0.14 0.11 0.13 0.12 0.11 0.10 0.10 0.10 0.07 0.11 0.16 0.14 0.11
0.06 0.03 0.04 0.05 0.07 0.07 0.04 0.03 0.03 0.02 0.02 0.02 0.01 0.01 0.01 0.01 0.01 0.01 0.00 0.01 0.01 0.01 0.02 0.02 0.03 0.04 0.04 0.04 0.06 0.09 0.11 0.16 0.17 0.14 0.09 0.07 0.08 0.09 0.09 0.09 0.12 0.17 0.18
0.03 0.02 0.02 0.04 0.06 0.06 0.04 0.04 0.04 0.02 0.02 0.01 0.01 0.02 0.01 0.01 0.00 0.00 0.00 0.00 0.00 0.00 0.01 0.01 0.01 0.02 0.03 0.04 0.04 0.06 0.07 0.10 0.10 0.09 0.06 0.07 0.08 0.07 0.09 0.10 0.10 0.11 0.15
0.01 0.02 0.03 0.06 0.08 0.07 0.06 0.06 0.06 0.05 0.04 0.03 0.03 0.02 0.02 0.01 0.00 0.00 0.00 0.00 0.00 0.00 0.00 0.01 0.01 0.01 0.02 0.03 0.04 0.04 0.05 0.04 0.05 0.06 0.06 0.07 0.09 0.08 0.09 0.10 0.10 0.09 0.11

GEFSSE_prec_meanprec_072.txt.gz
QPF
0.00 0.00 0.00 0.00 0.00 0.00 0.00 0.00 0.00 0.00 0.00 0.00 0.00 0.00 0.00 0.00 0.00 0.00 0.00 0.00 0.00 0.00 0.00 0.00 0.00 0.00 0.00 0.00 0.00 0.00 0.00 0.00 0.00 0.00 0.00 0.00 0.00 0.00 0.00 0.00 0.00 0.00 0.00
0.00 0.00 0.00 0.00 0.00 0.00 0.00 0.00 0.00 0.00 0.00 0.00 0.00 0.00 0.00 0.00 0.00 0.00 0.00 0.00 0.00 0.00 0.00 0.00 0.00 0.00 0.00 0.00 0.00 0.00 0.00 0.00 0.00 0.00 0.00 0.00 0.00 0.00 0.00 0.01 0.00 0.00 0.00
0.00 0.00 0.00 0.00 0.00 0.00 0.00 0.00 0.00 0.00 0.00 0.00 0.00 0.00 0.00 0.00 0.00 0.00 0.00 0.00 0.00 0.00 0.00 0.00 0.00 0.00 0.00 0.00 0.00 0.00 0.00 0.00 0.00 0.00 0.00 0.00 0.00 0.00 0.00 0.00 0.00 0.00 0.00
0.00 0.00 0.00 0.00 0.00 0.00 0.00 0.00 0.00 0.00 0.00 0.00 0.00 0.00 0.00 0.00 0.00 0.00 0.00 0.00 0.00 0.00 0.00 0.00 0.00 0.00 0.00 0.00 0.00 0.00 0.00 0.00 0.00 0.00 0.01 0.02 0.00 0.01 0.00 0.00 0.00 0.00 0.00
0.00 0.00 0.00 0.00 0.00 0.00 0.00 0.00 0.00 0.00 0.00 0.00 0.00 0.00 0.00 0.00 0.00 0.00 0.00 0.00 0.00 0.00 0.00 0.00 0.00 0.00 0.00 0.00 0.00 0.00 0.00 0.00 0.00 0.00 0.02 0.03 0.01 0.01 0.01 0.00 0.00 0.00 0.00
0.00 0.00 0.00 0.00 0.00 0.00 0.00 0.00 0.00 0.00 0.00 0.00 0.00 0.00 0.00 0.00 0.00 0.00 0.00 0.00 0.00 0.00 0.00 0.00 0.00 0.00 0.00 0.00 0.00 0.00 0.00 0.00 0.00 0.00 0.00 0.01 0.01 0.01 0.02 0.01 0.00 0.00 0.00
0.00 0.00 0.00 0.00 0.00 0.00 0.00 0.00 0.00 0.00 0.00 0.00 0.00 0.00 0.00 0.00 0.00 0.00 0.00 0.00 0.00 0.00 0.00 0.00 0.00 0.00 0.00 0.00 0.00 0.00 0.00 0.00 0.00 0.00 0.00 0.01 0.01 0.01 0.02 0.01 0.00 0.00 0.00
0.00 0.00 0.00 0.00 0.00 0.00 0.00 0.00 0.00 0.00 0.00 0.00 0.00 0.00 0.00 0.00 0.00 0.00 0.00 0.00 0.00 0.00 0.00 0.00 0.00 0.00 0.00 0.00 0.00 0.00 0.00 0.00 0.00 0.00 0.00 0.00 0.00 0.01 0.03 0.02 0.01 0.00 0.01
0.00 0.00 0.00 0.00 0.00 0.00 0.00 0.00 0.00 0.00 0.00 0.00 0.00 0.00 0.00 0.00 0.00 0.00 0.00 0.00 0.00 0.00 0.00 0.00 0.00 0.00 0.00 0.00 0.00 0.00 0.00 0.00 0.00 0.00 0.00 0.00 0.01 0.02 0.04 0.03 0.01 0.01 0.01
0.00 0.00 0.00 0.00 0.00 0.00 0.00 0.00 0.00 0.00 0.00 0.00 0.00 0.00 0.00 0.00 0.00 0.00 0.00 0.01 0.00 0.00 0.00 0.00 0.00 0.00 0.00 0.00 0.00 0.00 0.00 0.00 0.00 0.00 0.00 0.00 0.01 0.04 0.06 0.04 0.02 0.02 0.01
0.00 0.00 0.00 0.00 0.00 0.00 0.00 0.00 0.00 0.00 0.00 0.00 0.00 0.00 0.00 0.00 0.00 0.00 0.01 0.02 0.03 0.03 0.02 0.01 0.01 0.01 0.01 0.00 0.01 0.01 0.00 0.00 0.00 0.01 0.01 0.01 0.02 0.06 0.08 0.06 0.04 0.02 0.01
0.00 0.00 0.00 0.00 0.00 0.00 0.00 0.00 0.00 0.00 0.00 0.00 0.00 0.00 0.00 0.01 0.01 0.01 0.02 0.05 0.09 0.11 0.10 0.08 0.07 0.05 0.03 0.02 0.01 0.03 0.01 0.01 0.01 0.02 0.02 0.04 0.05 0.10 0.15 0.12 0.07 0.03 0.01
0.01 0.00 0.00 0.00 0.00 0.00 0.00 0.00 0.00 0.00 0.01 0.01 0.01 0.01 0.01 0.02 0.03 0.03 0.03 0.06 0.10 0.14 0.12 0.14 0.13 0.09 0.07 0.04 0.04 0.04 0.03 0.04 0.04 0.04 0.05 0.06 0.07 0.11 0.14 0.11 0.07 0.05 0.02
0.02 0.01 0.00 0.00 0.00 0.00 0.00 0.00 0.01 0.01 0.01 0.01 0.02 0.02 0.03 0.04 0.04 0.03 0.03 0.05 0.07 0.09 0.12 0.13 0.11 0.13 0.11 0.09 0.09 0.09 0.10 0.09 0.08 0.09 0.08 0.07 0.08 0.12 0.17 0.16 0.10 0.05 0.03
0.02 0.01 0.01 0.00 0.00 0.00 0.00 0.00 0.01 0.01 0.01 0.02 0.02 0.03 0.03 0.03 0.03 0.04 0.04 0.05 0.07 0.10 0.14 0.14 0.15 0.18 0.19 0.16 0.15 0.17 0.16 0.17 0.16 0.14 0.13 0.12 0.13 0.12 0.13 0.12 0.10 0.07 0.05
0.03 0.03 0.03 0.01 0.01 0.00 0.00 0.00 0.01 0.02 0.02 0.02 0.02 0.02 0.03 0.04 0.04 0.04 0.05 0.06 0.07 0.08 0.09 0.11 0.13 0.12 0.15 0.21 0.21 0.17 0.15 0.17 0.17 0.14 0.14 0.15 0.18 0.16 0.15 0.15 0.13 0.11 0.09
0.06 0.05 0.05 0.02 0.02 0.02 0.01 0.01 0.02 0.03 0.03 0.03 0.03 0.03 0.03 0.03 0.04 0.04 0.05 0.06 0.07 0.05 0.05 0.06 0.07 0.09 0.10 0.11 0.11 0.12 0.15 0.17 0.14 0.13 0.15 0.15 0.18 0.19 0.20 0.22 0.20 0.16 0.13
0.12 0.11 0.09 0.08 0.08 0.09 0.07 0.05 0.04 0.04 0.04 0.03 0.03 0.03 0.03 0.04 0.03 0.03 0.03 0.03 0.02 0.02 0.03 0.03 0.04 0.04 0.05 0.06 0.06 0.07 0.07 0.08 0.10 0.10 0.10 0.16 0.19 0.16 0.17 0.21 0.22 0.18 0.15
0.29 0.27 0.28 0.25 0.21 0.19 0.13 0.09 0.05 0.05 0.05 0.04 0.04 0.04 0.03 0.02 0.01 0.01 0.01 0.01 0.01 0.01 0.02 0.02 0.03 0.03 0.03 0.03 0.03 0.04 0.05 0.04 0.05 0.05 0.05 0.08 0.14 0.14 0.14 0.18 0.20 0.19 0.18
0.53 0.53 0.46 0.42 0.39 0.31 0.21 0.15 0.10 0.09 0.07 0.06 0.06 0.04 0.04 0.03 0.02 0.02 0.02 0.02 0.02 0.01 0.02 0.02 0.03 0.02 0.02 0.02 0.02 0.02 0.03 0.02 0.02 0.03 0.04 0.04 0.06 0.10 0.12 0.13 0.15 0.15 0.18
0.70 0.67 0.54 0.46 0.45 0.38 0.30 0.20 0.14 0.11 0.09 0.08 0.04 0.05 0.06 0.04 0.04 0.05 0.03 0.02 0.02 0.02 0.02 0.03 0.02 0.01 0.02 0.02 0.02 0.01 0.01 0.01 0.01 0.01 0.02 0.03 0.06 0.09 0.12 0.14 0.18 0.22 0.20
0.58 0.64 0.60 0.50 0.44 0.39 0.33 0.26 0.18 0.14 0.12 0.09 0.06 0.06 0.07 0.06 0.08 0.08 0.06 0.03 0.02 0.02 0.02 0.02 0.01 0.01 0.01 0.02 0.01 0.01 0.01 0.00 0.01 0.01 0.02 0.04 0.11 0.12 0.10 0.14 0.21 0.25 0.25
0.42 0.46 0.46 0.43 0.44 0.39 0.31 0.23 0.18 0.15 0.10 0.07 0.07 0.06 0.06 0.06 0.09 0.09 0.07 0.03 0.02 0.01 0.01 0.01 0.00 0.01 0.01 0.01 0.01 0.02 0.01 0.00 0.00 0.01 0.01 0.02 0.05 0.09 0.11 0.11 0.17 0.24 0.21
0.32 0.36 0.29 0.29 0.31 0.32 0.30 0.22 0.16 0.12 0.09 0.08 0.06 0.07 0.09 0.10 0.09 0.07 0.04 0.02 0.01 0.00 0.00 0.00 0.00 0.00 0.00 0.00 0.01 0.01 0.02 0.02 0.02 0.01 0.01 0.01 0.01 0.04 0.07 0.07 0.07 0.14 0.21
0.15 0.20 0.20 0.20 0.23 0.31 0.34 0.26 0.19 0.15 0.12 0.10 0.10 0.10 0.11 0.09 0.07 0.05 0.04 0.02 0.01 0.01 0.01 0.00 0.00 0.00 0.00 0.00 0.00 0.01 0.01 0.02 0.02 0.01 0.01 0.01 0.01 0.01 0.03 0.04 0.05 0.07 0.12
0.21 0.22 0.25 0.27 0.29 0.30 0.26 0.22 0.21 0.21 0.19 0.17 0.13 0.11 0.11 0.09 0.07 0.06 0.04 0.03 0.02 0.02 0.02 0.01 0.01 0.00 0.00 0.00 0.00 0.00 0.00 0.01 0.01 0.01 0.01 0.01 0.01 0.01 0.02 0.03 0.03 0.05 0.07

GEFSSE_prec_meanprec_078.txt.gz
QPF
0.00 0.00 0.00 0.00 0.00 0.00 0.00 0.00 0.00 0.00 0.00 0.00 0.00 0.00 0.00 0.00 0.00 0.00 0.00 0.00 0.00 0.00 0.00 0.00 0.00 0.00 0.00 0.00 0.00 0.00 0.00 0.00 0.00 0.00 0.00 0.01 0.01 0.02 0.02 0.01 0.00 0.00 0.01
0.00 0.00 0.00 0.00 0.00 0.00 0.00 0.00 0.00 0.00 0.00 0.00 0.00 0.00 0.00 0.00 0.00 0.00 0.00 0.00 0.00 0.00 0.00 0.00 0.00 0.00 0.00 0.00 0.00 0.00 0.00 0.00 0.00 0.00 0.00 0.01 0.02 0.03 0.02 0.01 0.00 0.00 0.01
0.00 0.00 0.00 0.00 0.00 0.00 0.00 0.00 0.00 0.00 0.00 0.00 0.00 0.00 0.00 0.00 0.00 0.00 0.00 0.00 0.00 0.00 0.00 0.00 0.00 0.00 0.00 0.00 0.00 0.00 0.00 0.00 0.00 0.00 0.00 0.00 0.01 0.03 0.04 0.01 0.00 0.00 0.00
0.00 0.00 0.00 0.00 0.00 0.00 0.00 0.00 0.00 0.00 0.00 0.00 0.00 0.00 0.00 0.00 0.00 0.00 0.00 0.00 0.00 0.00 0.00 0.00 0.00 0.00 0.00 0.00 0.00 0.00 0.00 0.00 0.00 0.00 0.00 0.00 0.00 0.01 0.03 0.02 0.00 0.00 0.00
0.00 0.00 0.00 0.00 0.00 0.00 0.00 0.00 0.00 0.00 0.00 0.00 0.00 0.00 0.00 0.00 0.00 0.00 0.00 0.00 0.00 0.00 0.00 0.00 0.00 0.00 0.00 0.00 0.00 0.00 0.00 0.00 0.00 0.00 0.00 0.00 0.00 0.01 0.02 0.02 0.01 0.00 0.00
0.00 0.00 0.00 0.00 0.00 0.00 0.00 0.00 0.00 0.00 0.00 0.00 0.00 0.00 0.00 0.00 0.00 0.00 0.00 0.00 0.00 0.00 0.00 0.00 0.00 0.00 0.00 0.00 0.00 0.00 0.00 0.00 0.00 0.00 0.00 0.00 0.00 0.00 0.02 0.03 0.02 0.01 0.00
0.00 0.00 0.00 0.00 0.00 0.00 0.00 0.00 0.00 0.00 0.00 0.00 0.00 0.00 0.00 0.00 0.00 0.00 0.00 0.00 0.00 0.00 0.00 0.00 0.00 0.00 0.00 0.00 0.00 0.00 0.00 0.00 0.00 0.00 0.00 0.00 0.00 0.00 0.02 0.04 0.04 0.03 0.01
0.00 0.00 0.00 0.00 0.00 0.00 0.00 0.00 0.00 0.00 0.00 0.00 0.00 0.00 0.00 0.00 0.00 0.00 0.00 0.00 0.00 0.00 0.00 0.00 0.00 0.00 0.00 0.00 0.00 0.00 0.00 0.00 0.00 0.00 0.00 0.00 0.00 0.00 0.02 0.04 0.05 0.04 0.03
0.00 0.00 0.00 0.00 0.00 0.00 0.00 0.00 0.00 0.00 0.00 0.00 0.00 0.00 0.00 0.00 0.00 0.00 0.00 0.00 0.00 0.00 0.00 0.00 0.00 0.00 0.00 0.00 0.00 0.00 0.00 0.00 0.00 0.00 0.00 0.00 0.00 0.00 0.01 0.03 0.04 0.04 0.03
0.00 0.00 0.00 0.00 0.00 0.00 0.00 0.00 0.00 0.00 0.00 0.00 0.00 0.00 0.00 0.00 0.00 0.00 0.00 0.00 0.00 0.01 0.01 0.01 0.00 0.01 0.01 0.01 0.00 0.00 0.00 0.00 0.00 0.00 0.00 0.00 0.00 0.00 0.02 0.04 0.05 0.05 0.05
0.00 0.00 0.00 0.00 0.00 0.00 0.00 0.00 0.00 0.00 0.00 0.00 0.00 0.00 0.01 0.01 0.01 0.01 0.01 0.02 0.02 0.04 0.06 0.06 0.05 0.05 0.04 0.03 0.02 0.02 0.01 0.00 0.00 0.00 0.00 0.00 0.00 0.01 0.03 0.06 0.08 0.07 0.06
0.01 0.00 0.00 0.00 0.00 0.00 0.00 0.00 0.00 0.00 0.00 0.00 0.00 0.00 0.01 0.01 0.01 0.01 0.02 0.05 0.09 0.12 0.13 0.12 0.10 0.09 0.07 0.04 0.03 0.04 0.02 0.02 0.02 0.01 0.00 0.01 0.01 0.02 0.06 0.09 0.11 0.12 0.10
0.05 0.01 0.01 0.00 0.00 0.00 0.00 0.00 0.00 0.00 0.01 0.01 0.01 0.01 0.02 0.02 0.02 0.03 0.04 0.04 0.07 0.12 0.12 0.14 0.15 0.13 0.11 0.07 0.06 0.04 0.04 0.04 0.04 0.03 0.03 0.03 0.04 0.07 0.09 0.11 0.12 0.13 0.13
0.04 0.02 0.01 0.01 0.01 0.01 0.01 0.01 0.02 0.02 0.02 0.02 0.03 0.03 0.04 0.05 0.05 0.04 0.04 0.05 0.05 0.07 0.08 0.10 0.11 0.13 0.12 0.11 0.11 0.08 0.07 0.07 0.07 0.06 0.04 0.05 0.08 0.10 0.14 0.13 0.12 0.15 0.15
0.02 0.03 0.03 0.02 0.02 0.03 0.03 0.04 0.04 0.05 0.05 0.04 0.05 0.07 0.09 0.07 0.06 0.06 0.06 0.06 0.05 0.06 0.07 0.08 0.11 0.13 0.15 0.13 0.12 0.12 0.10 0.09 0.08 0.06 0.04 0.04 0.08 0.10 0.13 0.14 0.16 0.18 0.17
0.04 0.06 0.07 0.08 0.10 0.11 0.11 0.09 0.08 0.09 0.09 0.09 0.12 0.11 0.08 0.07 0.06 0.07 0.07 0.06 0.05 0.05 0.05 0.05 0.08 0.08 0.08 0.09 0.09 0.11 0.09 0.08 0.06 0.05 0.04 0.04 0.05 0.09 0.11 0.14 0.16 0.18 0.19
0.06 0.11 0.15 0.20 0.25 0.25 0.25 0.23 0.22 0.21 0.17 0.17 0.16 0.12 0.11 0.10 0.08 0.07 0.07 0.06 0.05 0.04 0.04 0.05 0.06 0.06 0.06 0.06 0.05 0.06 0.04 0.04 0.04 0.05 0.06 0.04 0.04 0.05 0.08 0.12 0.14 0.15 0.17
0.13 0.17 0.22 0.30 0.36 0.39 0.43 0.44 0.40 0.34 0.27 0.25 0.22 0.17 0.14 0.12 0.10 0.10 0.07 0.06 0.05 0.06 0.06 0.06 0.07 0.05 0.05 0.04 0.03 0.02 0.02 0.01 0.01 0.03 0.04 0.03 0.04 0.05 0.06 0.11 0.13 0.14 0.16
0.21 0.23 0.30 0.42 0.53 0.56 0.61 0.67 0.62 0.51 0.41 0.37 0.30 0.24 0.18 0.15 0.13 0.10 0.08 0.08 0.08 0.09 0.08 0.08 0.06 0.04 0.03 0.04 0.03 0.02 0.01 0.01 0.01 0.01 0.01 0.02 0.03 0.04 0.04 0.08 0.11 0.12 0.13
0.27 0.37 0.47 0.56 0.63 0.72 0.74 0.78 0.69 0.55 0.45 0.41 0.38 0.32 0.22 0.16 0.14 0.12 0.11 0.11 0.11 0.11 0.08 0.06 0.05 0.03 0.02 0.03 0.03 0.02 0.01 0.01 0.02 0.01 0.01 0.01 0.01 0.02 0.02 0.04 0.04 0.05 0.09
0.30 0.46 0.57 0.56 0.65 0.73 0.70 0.67 0.59 0.48 0.40 0.36 0.35 0.26 0.19 0.16 0.14 0.13 0.15 0.16 0.14 0.11 0.07 0.05 0.03 0.02 0.02 0.03 0.03 0.03 0.02 0.02 0.02 0.01 0.00 0.00 0.01 0.01 0.01 0.02 0.03 0.04 0.05
0.27 0.40 0.48 0.50 0.56 0.64 0.65 0.62 0.53 0.42 0.33 0.27 0.26 0.24 0.21 0.17 0.14 0.15 0.17 0.18 0.15 0.10 0.06 0.04 0.03 0.03 0.03 0.02 0.02 0.02 0.01 0.01 0.01 0.00 0.00 0.00 0.00 0.00 0.00 0.01 0.03 0.02 0.03
0.15 0.18 0.22 0.26 0.33 0.37 0.43 0.40 0.35 0.32 0.28 0.25 0.23 0.19 0.16 0.15 0.14 0.13 0.14 0.15 0.12 0.08 0.05 0.04 0.03 0.02 0.02 0.02 0.02 0.02 0.01 0.00 0.00 0.00 0.00 0.00 0.00 0.00 0.00 0.00 0.01 0.01 0.02
0.10 0.11 0.12 0.13 0.17 0.18 0.22 0.27 0.30 0.28 0.25 0.23 0.20 0.17 0.16 0.16 0.15 0.14 0.14 0.13 0.12 0.06 0.04 0.03 0.02 0.02 0.02 0.01 0.01 0.00 0.00 0.00 0.00 0.00 0.00 0.00 0.00 0.00 0.00 0.00 0.00 0.00 0.01
0.09 0.10 0.11 0.12 0.12 0.14 0.16 0.18 0.21 0.23 0.21 0.19 0.18 0.16 0.16 0.16 0.16 0.13 0.12 0.10 0.08 0.05 0.03 0.02 0.02 0.01 0.01 0.01 0.00 0.00 0.00 0.00 0.00 0.00 0.00 0.00 0.00 0.00 0.00 0.00 0.00 0.00 0.00
0.06 0.07 0.09 0.13 0.15 0.16 0.15 0.15 0.14 0.14 0.16 0.19 0.19 0.17 0.14 0.14 0.14 0.13 0.13 0.12 0.09 0.07 0.05 0.04 0.03 0.02 0.01 0.01 0.00 0.00 0.00 0.00 0.00 0.00 0.00 0.00 0.00 0.00 0.00 0.00 0.00 0.00 0.01

GEFSSE_prec_meanprec_084.txt.gz
QPF
0.00 0.00 0.00 0.00 0.00 0.00 0.00 0.00 0.00 0.00 0.00 0.00 0.00 0.00 0.00 0.00 0.00 0.00 0.00 0.00 0.00 0.00 0.00 0.00 0.00 0.01 0.01 0.00 0.01 0.00 0.00 0.00 0.00 0.00 0.00 0.00 0.00 0.01 0.01 0.01 0.01 0.01 0.01
0.00 0.00 0.00 0.00 0.00 0.00 0.00 0.00 0.00 0.00 0.00 0.00 0.00 0.00 0.00 0.00 0.00 0.00 0.00 0.00 0.00 0.00 0.00 0.00 0.00 0.00 0.00 0.00 0.00 0.00 0.00 0.00 0.00 0.00 0.00 0.00 0.01 0.01 0.01 0.01 0.01 0.01 0.01
0.00 0.00 0.00 0.00 0.00 0.00 0.00 0.00 0.00 0.00 0.00 0.00 0.00 0.00 0.00 0.00 0.00 0.00 0.00 0.00 0.00 0.00 0.00 0.00 0.00 0.00 0.00 0.00 0.00 0.00 0.00 0.00 0.00 0.00 0.00 0.00 0.00 0.01 0.01 0.00 0.01 0.01 0.01
0.00 0.00 0.00 0.00 0.00 0.00 0.00 0.00 0.00 0.00 0.00 0.00 0.00 0.00 0.00 0.00 0.00 0.00 0.00 0.00 0.00 0.00 0.00 0.00 0.00 0.00 0.00 0.00 0.00 0.00 0.00 0.00 0.00 0.00 0.01 0.00 0.00 0.01 0.01 0.01 0.01 0.01 0.01
0.00 0.00 0.00 0.00 0.00 0.00 0.00 0.00 0.00 0.00 0.00 0.00 0.00 0.00 0.00 0.00 0.00 0.00 0.00 0.00 0.00 0.00 0.00 0.00 0.00 0.00 0.00 0.00 0.00 0.00 0.00 0.00 0.00 0.00 0.00 0.00 0.01 0.01 0.01 0.01 0.01 0.01 0.01
0.00 0.00 0.00 0.00 0.00 0.00 0.00 0.00 0.00 0.00 0.00 0.00 0.00 0.00 0.00 0.00 0.00 0.00 0.00 0.00 0.00 0.00 0.00 0.00 0.00 0.00 0.00 0.00 0.00 0.00 0.00 0.00 0.00 0.00 0.00 0.00 0.00 0.01 0.01 0.01 0.01 0.01 0.01
0.00 0.00 0.00 0.00 0.00 0.00 0.00 0.00 0.00 0.00 0.00 0.00 0.00 0.00 0.00 0.00 0.00 0.00 0.00 0.00 0.00 0.00 0.00 0.01 0.01 0.01 0.00 0.00 0.00 0.00 0.00 0.00 0.00 0.00 0.00 0.00 0.00 0.01 0.01 0.02 0.02 0.02 0.01
0.00 0.00 0.00 0.00 0.00 0.00 0.00 0.00 0.00 0.00 0.00 0.00 0.00 0.00 0.00 0.00 0.00 0.00 0.00 0.00 0.00 0.00 0.00 0.00 0.00 0.00 0.00 0.00 0.00 0.00 0.00 0.00 0.00 0.00 0.00 0.00 0.00 0.00 0.02 0.04 0.04 0.04 0.03
0.00 0.00 0.00 0.00 0.00 0.00 0.00 0.00 0.00 0.00 0.00 0.00 0.00 0.00 0.00 0.00 0.00 0.00 0.00 0.00 0.00 0.00 0.00 0.00 0.00 0.00 0.00 0.00 0.00 0.00 0.00 0.00 0.00 0.00 0.00 0.00 0.00 0.01 0.03 0.06 0.07 0.05 0.04
0.00 0.00 0.00 0.00 0.00 0.00 0.00 0.00 0.00 0.00 0.00 0.00 0.00 0.00 0.00 0.00 0.00 0.01 0.01 0.00 0.00 0.01 0.01 0.01 0.01 0.01 0.01 0.01 0.00 0.00 0.00 0.01 0.00 0.00 0.00 0.00 0.00 0.01 0.03 0.07 0.09 0.08 0.06
0.00 0.00 0.00 0.00 0.00 0.00 0.00 0.00 0.00 0.00 0.01 0.00 0.00 0.01 0.01 0.01 0.01 0.01 0.01 0.01 0.01 0.03 0.03 0.03 0.03 0.03 0.03 0.02 0.02 0.02 0.02 0.01 0.01 0.01 0.01 0.00 0.00 0.00 0.01 0.05 0.08 0.09 0.08
0.00 0.00 0.00 0.01 0.01 0.01 0.01 0.01 0.01 0.01 0.01 0.01 0.01 0.01 0.02 0.02 0.01 0.01 0.01 0.02 0.03 0.04 0.05 0.06 0.07 0.07 0.06 0.05 0.08 0.06 0.03 0.03 0.02 0.01 0.02 0.01 0.01 0.01 0.02 0.04 0.08 0.09 0.09
0.00 0.00 0.00 0.01 0.01 0.01 0.02 0.01 0.02 0.02 0.02 0.02 0.02 0.02 0.03 0.03 0.03 0.02 0.03 0.03 0.04 0.05 0.08 0.10 0.12 0.11 0.12 0.11 0.14 0.11 0.06 0.06 0.04 0.04 0.04 0.03 0.02 0.03 0.03 0.04 0.06 0.07 0.09
0.00 0.00 0.00 0.01 0.01 0.01 0.01 0.02 0.02 0.02 0.03 0.03 0.04 0.06 0.08 0.11 0.08 0.05 0.05 0.04 0.05 0.07 0.09 0.13 0.16 0.16 0.15 0.14 0.15 0.11 0.08 0.08 0.07 0.07 0.06 0.04 0.04 0.04 0.05 0.05 0.06 0.07 0.08
0.01 0.02 0.01 0.01 0.01 0.01 0.02 0.02 0.02 0.02 0.03 0.04 0.05 0.07 0.09 0.12 0.10 0.07 0.07 0.07 0.06 0.07 0.09 0.13 0.16 0.17 0.16 0.16 0.14 0.11 0.10 0.10 0.09 0.08 0.07 0.06 0.05 0.05 0.06 0.07 0.09 0.08 0.09
0.03 0.04 0.04 0.03 0.03 0.03 0.03 0.03 0.03 0.04 0.05 0.06 0.07 0.09 0.11 0.11 0.11 0.10 0.09 0.07 0.07 0.09 0.11 0.13 0.12 0.14 0.14 0.16 0.11 0.10 0.10 0.09 0.08 0.08 0.08 0.07 0.05 0.05 0.06 0.08 0.10 0.12 0.11
0.06 0.07 0.07 0.07 0.09 0.09 0.08 0.10 0.10 0.10 0.13 0.15 0.16 0.16 0.16 0.13 0.11 0.11 0.10 0.09 0.09 0.10 0.11 0.11 0.11 0.12 0.11 0.10 0.08 0.09 0.09 0.07 0.06 0.07 0.07 0.06 0.04 0.04 0.05 0.06 0.09 0.10 0.11
0.08 0.09 0.09 0.10 0.13 0.12 0.13 0.14 0.12 0.17 0.23 0.24 0.25 0.24 0.21 0.18 0.17 0.17 0.15 0.13 0.12 0.11 0.12 0.11 0.12 0.15 0.13 0.11 0.09 0.07 0.06 0.06 0.04 0.06 0.06 0.05 0.04 0.04 0.05 0.05 0.06 0.08 0.09
0.10 0.09 0.08 0.09 0.12 0.13 0.14 0.14 0.15 0.20 0.24 0.26 0.25 0.25 0.24 0.24 0.28 0.29 0.25 0.20 0.17 0.16 0.14 0.11 0.11 0.13 0.12 0.09 0.07 0.05 0.04 0.03 0.03 0.02 0.02 0.02 0.03 0.03 0.04 0.04 0.03 0.04 0.04
0.08 0.08 0.07 0.08 0.11 0.15 0.20 0.22 0.22 0.23 0.21 0.22 0.24 0.27 0.29 0.35 0.39 0.40 0.36 0.28 0.21 0.16 0.13 0.13 0.14 0.12 0.09 0.07 0.05 0.04 0.04 0.04 0.02 0.02 0.01 0.01 0.02 0.02 0.02 0.02 0.03 0.03 0.03
0.06 0.06 0.07 0.09 0.13 0.20 0.28 0.33 0.33 0.32 0.31 0.27 0.27 0.32 0.33 0.32 0.34 0.35 0.33 0.28 0.21 0.15 0.13 0.12 0.12 0.11 0.08 0.07 0.05 0.04 0.03 0.02 0.02 0.01 0.01 0.01 0.01 0.01 0.01 0.01 0.02 0.02 0.02
0.04 0.05 0.07 0.08 0.11 0.19 0.28 0.32 0.34 0.32 0.28 0.25 0.21 0.24 0.25 0.27 0.26 0.23 0.20 0.16 0.14 0.12 0.12 0.11 0.10 0.09 0.07 0.06 0.06 0.06 0.05 0.03 0.01 0.00 0.00 0.00 0.00 0.01 0.01 0.01 0.01 0.02 0.02
0.03 0.04 0.05 0.07 0.08 0.12 0.19 0.22 0.28 0.28 0.21 0.16 0.14 0.16 0.20 0.21 0.18 0.15 0.14 0.11 0.10 0.09 0.10 0.10 0.10 0.09 0.07 0.06 0.05 0.05 0.04 0.03 0.01 0.01 0.01 0.00 0.00 0.01 0.01 0.01 0.01 0.01 0.01
0.02 0.04 0.04 0.06 0.07 0.09 0.09 0.10 0.11 0.10 0.10 0.09 0.08 0.11 0.13 0.14 0.12 0.11 0.11 0.10 0.10 0.09 0.08 0.07 0.08 0.08 0.08 0.05 0.04 0.03 0.03 0.02 0.02 0.01 0.01 0.00 0.00 0.00 0.00 0.00 0.00 0.01 0.00
0.01 0.02 0.03 0.05 0.06 0.05 0.04 0.03 0.04 0.04 0.06 0.08 0.11 0.12 0.12 0.10 0.08 0.09 0.09 0.09 0.10 0.08 0.07 0.06 0.06 0.07 0.06 0.06 0.05 0.03 0.02 0.02 0.02 0.01 0.01 0.00 0.00 0.00 0.00 0.00 0.00 0.00 0.00
0.00 0.01 0.01 0.01 0.01 0.01 0.01 0.01 0.01 0.02 0.03 0.03 0.04 0.05 0.04 0.04 0.05 0.06 0.06 0.07 0.08 0.08 0.09 0.09 0.08 0.07 0.06 0.06 0.05 0.05 0.04 0.03 0.01 0.01 0.01 0.01 0.01 0.00 0.00 0.00 0.00 0.00 0.00

GEFSSE_prec_meanprec_090.txt.gz
QPF
0.00 0.00 0.00 0.00 0.00 0.00 0.00 0.00 0.00 0.00 0.00 0.00 0.00 0.00 0.00 0.00 0.00 0.00 0.00 0.00 0.00 0.00 0.00 0.00 0.00 0.00 0.00 0.00 0.01 0.01 0.01 0.00 0.00 0.00 0.00 0.00 0.00 0.00 0.01 0.02 0.05 0.02 0.00
0.00 0.00 0.00 0.00 0.00 0.00 0.00 0.00 0.00 0.00 0.00 0.00 0.00 0.00 0.00 0.00 0.00 0.00 0.00 0.00 0.00 0.00 0.01 0.00 0.00 0.00 0.00 0.00 0.00 0.00 0.00 0.00 0.00 0.00 0.00 0.00 0.00 0.00 0.01 0.03 0.08 0.02 0.00
0.00 0.00 0.00 0.00 0.00 0.00 0.00 0.00 0.00 0.00 0.00 0.00 0.00 0.00 0.00 0.00 0.00 0.00 0.00 0.00 0.00 0.00 0.01 0.00 0.00 0.00 0.00 0.00 0.00 0.00 0.00 0.00 0.00 0.01 0.03 0.02 0.00 0.00 0.01 0.03 0.04 0.01 0.00
0.00 0.00 0.00 0.00 0.00 0.00 0.00 0.00 0.00 0.00 0.00 0.00 0.00 0.00 0.00 0.00 0.00 0.00 0.00 0.01 0.01 0.01 0.01 0.00 0.00 0.00 0.00 0.00 0.00 0.00 0.00 0.00 0.00 0.02 0.13 0.05 0.00 0.00 0.00 0.01 0.01 0.00 0.00
0.00 0.00 0.00 0.00 0.00 0.00 0.00 0.00 0.00 0.00 0.00 0.00 0.00 0.00 0.00 0.00 0.00 0.00 0.00 0.01 0.00 0.00 0.01 0.01 0.00 0.00 0.00 0.00 0.00 0.00 0.00 0.00 0.00 0.03 0.06 0.03 0.03 0.01 0.00 0.00 0.00 0.01 0.01
0.00 0.00 0.00 0.00 0.00 0.00 0.00 0.00 0.00 0.00 0.00 0.00 0.00 0.00 0.00 0.00 0.00 0.00 0.00 0.00 0.01 0.01 0.01 0.00 0.00 0.00 0.00 0.00 0.00 0.00 0.00 0.00 0.00 0.01 0.01 0.02 0.03 0.01 0.00 0.00 0.00 0.01 0.01
0.00 0.00 0.00 0.00 0.00 0.00 0.00 0.00 0.00 0.00 0.00 0.00 0.00 0.00 0.00 0.00 0.00 0.00 0.01 0.01 0.01 0.01 0.01 0.00 0.00 0.00 0.00 0.00 0.00 0.00 0.00 0.00 0.01 0.01 0.00 0.01 0.03 0.00 0.00 0.00 0.00 0.01 0.01
0.00 0.00 0.00 0.00 0.00 0.00 0.00 0.00 0.00 0.00 0.00 0.00 0.00 0.00 0.00 0.00 0.00 0.01 0.01 0.01 0.01 0.00 0.00 0.00 0.00 0.00 0.00 0.00 0.00 0.00 0.00 0.00 0.00 0.00 0.00 0.01 0.01 0.00 0.00 0.00 0.01 0.01 0.01
0.00 0.00 0.00 0.00 0.00 0.00 0.00 0.00 0.00 0.00 0.00 0.00 0.00 0.00 0.00 0.00 0.00 0.00 0.00 0.01 0.00 0.01 0.00 0.00 0.00 0.00 0.00 0.00 0.00 0.00 0.00 0.00 0.00 0.00 0.00 0.01 0.00 0.00 0.00 0.01 0.01 0.01 0.01
0.00 0.00 0.00 0.00 0.00 0.00 0.00 0.00 0.00 0.00 0.00 0.00 0.00 0.00 0.00 0.00 0.00 0.01 0.01 0.01 0.00 0.01 0.00 0.00 0.01 0.01 0.00 0.00 0.00 0.00 0.00 0.00 0.00 0.00 0.00 0.00 0.00 0.00 0.00 0.01 0.02 0.03 0.03
0.00 0.00 0.00 0.00 0.00 0.00 0.00 0.00 0.00 0.00 0.00 0.00 0.00 0.00 0.00 0.00 0.00 0.01 0.01 0.01 0.01 0.01 0.00 0.01 0.01 0.01 0.01 0.01 0.00 0.01 0.01 0.00 0.00 0.01 0.00 0.01 0.01 0.00 0.00 0.01 0.02 0.03 0.03
0.00 0.00 0.00 0.00 0.00 0.00 0.01 0.02 0.02 0.02 0.02 0.01 0.02 0.01 0.01 0.01 0.01 0.01 0.03 0.03 0.02 0.01 0.01 0.01 0.02 0.02 0.01 0.03 0.07 0.05 0.01 0.00 0.00 0.01 0.01 0.02 0.01 0.01 0.00 0.00 0.01 0.03 0.03
0.00 0.00 0.00 0.00 0.00 0.01 0.02 0.02 0.02 0.03 0.04 0.03 0.03 0.03 0.03 0.03 0.02 0.02 0.04 0.05 0.04 0.03 0.03 0.04 0.04 0.05 0.05 0.08 0.14 0.10 0.02 0.02 0.02 0.02 0.07 0.06 0.03 0.02 0.01 0.00 0.01 0.01 0.03
0.00 0.00 0.00 0.00 0.01 0.01 0.02 0.03 0.03 0.03 0.04 0.05 0.06 0.08 0.08 0.07 0.06 0.06 0.06 0.07 0.08 0.11 0.10 0.09 0.11 0.12 0.11 0.12 0.15 0.11 0.07 0.08 0.08 0.12 0.16 0.14 0.08 0.03 0.02 0.01 0.01 0.01 0.02
0.00 0.00 0.00 0.01 0.01 0.02 0.03 0.04 0.03 0.03 0.04 0.04 0.05 0.07 0.09 0.10 0.10 0.10 0.12 0.13 0.11 0.14 0.15 0.16 0.15 0.18 0.17 0.16 0.15 0.14 0.12 0.10 0.10 0.13 0.23 0.22 0.13 0.04 0.02 0.02 0.02 0.02 0.02
0.03 0.02 0.01 0.02 0.03 0.05 0.06 0.06 0.04 0.03 0.04 0.03 0.04 0.06 0.10 0.12 0.12 0.13 0.14 0.16 0.14 0.13 0.13 0.17 0.16 0.18 0.17 0.17 0.12 0.13 0.12 0.10 0.08 0.09 0.13 0.18 0.10 0.04 0.02 0.02 0.02 0.03 0.03
0.04 0.03 0.04 0.04 0.05 0.07 0.09 0.10 0.08 0.06 0.04 0.03 0.06 0.09 0.12 0.12 0.13 0.13 0.13 0.14 0.13 0.12 0.15 0.14 0.14 0.17 0.15 0.12 0.10 0.09 0.11 0.10 0.08 0.09 0.11 0.17 0.15 0.09 0.04 0.03 0.03 0.03 0.03
0.04 0.04 0.04 0.04 0.06 0.09 0.11 0.11 0.10 0.08 0.10 0.09 0.11 0.12 0.14 0.15 0.14 0.15 0.15 0.15 0.16 0.17 0.17 0.18 0.16 0.18 0.19 0.15 0.13 0.11 0.11 0.11 0.08 0.09 0.09 0.12 0.14 0.13 0.14 0.10 0.07 0.04 0.03
0.04 0.05 0.06 0.09 0.11 0.11 0.10 0.11 0.11 0.12 0.13 0.13 0.15 0.17 0.19 0.20 0.21 0.22 0.24 0.26 0.23 0.21 0.20 0.17 0.20 0.23 0.22 0.18 0.14 0.11 0.08 0.06 0.08 0.09 0.11 0.10 0.08 0.11 0.15 0.16 0.09 0.04 0.03
0.04 0.06 0.07 0.08 0.09 0.11 0.14 0.20 0.18 0.14 0.14 0.15 0.16 0.18 0.21 0.19 0.20 0.23 0.26 0.29 0.26 0.21 0.19 0.20 0.22 0.22 0.21 0.20 0.13 0.09 0.09 0.06 0.06 0.08 0.11 0.09 0.06 0.04 0.06 0.10 0.12 0.04 0.03
0.02 0.04 0.06 0.08 0.10 0.12 0.15 0.15 0.15 0.13 0.13 0.13 0.14 0.16 0.18 0.18 0.19 0.21 0.23 0.27 0.25 0.22 0.20 0.20 0.22 0.20 0.16 0.14 0.14 0.12 0.10 0.06 0.06 0.07 0.07 0.07 0.05 0.03 0.03 0.07 0.07 0.07 0.06
0.02 0.03 0.03 0.05 0.06 0.07 0.08 0.09 0.08 0.07 0.08 0.10 0.12 0.14 0.14 0.14 0.15 0.18 0.22 0.24 0.23 0.24 0.24 0.22 0.22 0.21 0.18 0.14 0.14 0.13 0.11 0.09 0.06 0.03 0.03 0.04 0.03 0.03 0.03 0.04 0.05 0.09 0.07
0.00 0.01 0.01 0.02 0.03 0.04 0.05 0.06 0.05 0.05 0.07 0.10 0.10 0.12 0.13 0.13 0.13 0.17 0.20 0.22 0.22 0.23 0.26 0.25 0.23 0.22 0.19 0.15 0.13 0.13 0.11 0.08 0.07 0.04 0.02 0.02 0.02 0.02 0.02 0.03 0.05 0.05 0.04
0.00 0.00 0.01 0.01 0.01 0.01 0.02 0.04 0.05 0.05 0.05 0.05 0.05 0.05 0.06 0.07 0.09 0.12 0.14 0.15 0.17 0.16 0.19 0.18 0.20 0.21 0.19 0.14 0.14 0.12 0.09 0.08 0.10 0.08 0.05 0.02 0.02 0.02 0.01 0.02 0.02 0.03 0.03
0.00 0.00 0.00 0.01 0.01 0.01 0.02 0.02 0.03 0.03 0.04 0.04 0.03 0.03 0.02 0.03 0.03 0.03 0.06 0.09 0.11 0.12 0.15 0.17 0.19 0.19 0.17 0.15 0.16 0.17 0.14 0.11 0.08 0.09 0.11 0.08 0.04 0.02 0.02 0.01 0.02 0.04 0.03
0.00 0.00 0.00 0.01 0.01 0.01 0.01 0.02 0.02 0.03 0.03 0.03 0.03 0.02 0.02 0.02 0.02 0.02 0.03 0.04 0.06 0.09 0.13 0.17 0.18 0.19 0.20 0.18 0.16 0.17 0.16 0.13 0.09 0.08 0.09 0.09 0.08 0.04 0.02 0.01 0.01 0.02 0.02

GEFSSE_prec_meanprec_096.txt.gz
QPF
0.00 0.00 0.00 0.00 0.00 0.00 0.00 0.00 0.00 0.00 0.00 0.00 0.00 0.00 0.00 0.00 0.00 0.00 0.00 0.00 0.00 0.00 0.00 0.00 0.00 0.00 0.01 0.01 0.01 0.01 0.01 0.01 0.01 0.01 0.01 0.01 0.01 0.01 0.03 0.03 0.02 0.01 0.02
0.00 0.00 0.00 0.00 0.00 0.00 0.00 0.00 0.00 0.00 0.00 0.00 0.00 0.00 0.00 0.00 0.00 0.00 0.00 0.00 0.00 0.00 0.00 0.00 0.00 0.00 0.00 0.01 0.01 0.00 0.00 0.00 0.01 0.01 0.01 0.00 0.00 0.01 0.02 0.02 0.01 0.01 0.01
0.00 0.00 0.00 0.00 0.00 0.00 0.00 0.00 0.00 0.00 0.00 0.00 0.00 0.00 0.00 0.00 0.00 0.00 0.00 0.00 0.00 0.00 0.00 0.00 0.00 0.00 0.00 0.00 0.00 0.00 0.00 0.00 0.01 0.02 0.01 0.00 0.00 0.01 0.02 0.02 0.01 0.01 0.01
0.00 0.00 0.00 0.00 0.00 0.00 0.00 0.00 0.00 0.00 0.00 0.00 0.00 0.00 0.00 0.00 0.00 0.00 0.00 0.00 0.00 0.00 0.00 0.00 0.00 0.00 0.00 0.00 0.00 0.00 0.00 0.00 0.01 0.02 0.02 0.01 0.00 0.01 0.01 0.01 0.00 0.00 0.00
0.00 0.00 0.00 0.00 0.00 0.00 0.00 0.00 0.00 0.00 0.00 0.00 0.00 0.00 0.00 0.00 0.00 0.00 0.00 0.00 0.00 0.00 0.00 0.00 0.00 0.00 0.00 0.00 0.00 0.00 0.00 0.00 0.02 0.04 0.04 0.01 0.00 0.01 0.01 0.00 0.00 0.00 0.00
0.00 0.00 0.00 0.00 0.00 0.00 0.00 0.00 0.00 0.00 0.00 0.00 0.00 0.00 0.00 0.00 0.00 0.00 0.00 0.00 0.00 0.00 0.00 0.00 0.00 0.00 0.00 0.00 0.00 0.00 0.00 0.00 0.01 0.02 0.03 0.02 0.01 0.01 0.01 0.00 0.00 0.00 0.00
0.00 0.00 0.00 0.00 0.00 0.00 0.00 0.00 0.00 0.00 0.00 0.00 0.00 0.00 0.00 0.00 0.00 0.00 0.00 0.00 0.00 0.00 0.00 0.00 0.00 0.00 0.00 0.00 0.00 0.00 0.00 0.00 0.01 0.03 0.03 0.03 0.01 0.01 0.01 0.00 0.00 0.00 0.00
0.00 0.00 0.00 0.00 0.00 0.00 0.00 0.00 0.00 0.00 0.00 0.00 0.00 0.00 0.00 0.00 0.00 0.00 0.00 0.00 0.00 0.00 0.00 0.00 0.00 0.00 0.00 0.00 0.00 0.00 0.00 0.00 0.00 0.01 0.04 0.03 0.01 0.01 0.01 0.00 0.00 0.00 0.00
0.00 0.00 0.00 0.00 0.00 0.00 0.00 0.00 0.00 0.00 0.00 0.00 0.00 0.00 0.00 0.00 0.00 0.00 0.01 0.01 0.00 0.00 0.00 0.00 0.00 0.00 0.00 0.00 0.00 0.00 0.00 0.00 0.00 0.01 0.03 0.04 0.03 0.03 0.01 0.01 0.00 0.00 0.00
0.01 0.00 0.00 0.00 0.00 0.00 0.00 0.00 0.00 0.00 0.00 0.00 0.00 0.00 0.00 0.00 0.00 0.00 0.00 0.00 0.00 0.00 0.00 0.00 0.00 0.00 0.00 0.00 0.00 0.00 0.00 0.00 0.00 0.01 0.01 0.03 0.05 0.05 0.03 0.01 0.00 0.00 0.00
0.02 0.00 0.00 0.00 0.00 0.00 0.00 0.00 0.00 0.00 0.00 0.00 0.00 0.00 0.00 0.00 0.00 0.00 0.00 0.01 0.01 0.01 0.02 0.02 0.01 0.01 0.01 0.01 0.00 0.00 0.00 0.00 0.00 0.01 0.01 0.02 0.04 0.05 0.04 0.02 0.01 0.00 0.00
0.04 0.03 0.02 0.01 0.01 0.00 0.00 0.00 0.01 0.02 0.02 0.00 0.00 0.00 0.00 0.00 0.01 0.01 0.01 0.03 0.04 0.05 0.04 0.03 0.03 0.02 0.01 0.01 0.01 0.01 0.00 0.00 0.01 0.02 0.01 0.02 0.05 0.07 0.07 0.04 0.03 0.01 0.01
0.07 0.06 0.04 0.03 0.02 0.02 0.02 0.03 0.02 0.03 0.03 0.02 0.02 0.02 0.02 0.02 0.02 0.02 0.02 0.04 0.06 0.08 0.05 0.06 0.06 0.04 0.03 0.03 0.03 0.02 0.02 0.02 0.03 0.05 0.04 0.05 0.08 0.09 0.09 0.06 0.04 0.03 0.01
0.12 0.09 0.07 0.07 0.08 0.08 0.05 0.06 0.06 0.06 0.06 0.06 0.06 0.06 0.05 0.05 0.05 0.05 0.05 0.07 0.10 0.10 0.12 0.11 0.10 0.09 0.10 0.09 0.08 0.06 0.05 0.05 0.07 0.09 0.12 0.12 0.15 0.14 0.13 0.09 0.05 0.03 0.02
0.33 0.25 0.20 0.16 0.27 0.24 0.12 0.11 0.10 0.10 0.10 0.10 0.10 0.10 0.11 0.10 0.09 0.09 0.10 0.12 0.13 0.13 0.15 0.16 0.14 0.14 0.16 0.15 0.11 0.08 0.08 0.09 0.10 0.11 0.17 0.19 0.18 0.16 0.17 0.14 0.08 0.05 0.03
0.20 0.23 0.23 0.27 0.32 0.26 0.17 0.19 0.20 0.17 0.16 0.15 0.15 0.19 0.22 0.19 0.17 0.16 0.15 0.15 0.13 0.13 0.17 0.17 0.17 0.18 0.18 0.17 0.14 0.12 0.12 0.13 0.14 0.13 0.15 0.17 0.19 0.18 0.16 0.15 0.11 0.06 0.04
0.19 0.21 0.20 0.21 0.27 0.28 0.27 0.25 0.25 0.21 0.19 0.20 0.21 0.27 0.29 0.23 0.22 0.23 0.21 0.20 0.17 0.17 0.17 0.19 0.22 0.22 0.17 0.14 0.12 0.12 0.13 0.13 0.13 0.12 0.14 0.17 0.16 0.21 0.21 0.15 0.13 0.10 0.06
0.22 0.25 0.21 0.21 0.31 0.36 0.31 0.25 0.20 0.16 0.15 0.16 0.17 0.21 0.31 0.26 0.22 0.23 0.21 0.17 0.16 0.17 0.17 0.18 0.17 0.18 0.17 0.15 0.12 0.10 0.12 0.15 0.16 0.14 0.15 0.18 0.17 0.19 0.20 0.15 0.14 0.12 0.09
0.23 0.20 0.20 0.21 0.27 0.30 0.24 0.15 0.13 0.13 0.12 0.11 0.13 0.15 0.15 0.16 0.18 0.19 0.19 0.18 0.17 0.17 0.16 0.16 0.19 0.19 0.17 0.15 0.15 0.14 0.15 0.16 0.16 0.17 0.20 0.18 0.20 0.20 0.17 0.13 0.15 0.14 0.12
0.11 0.09 0.09 0.10 0.11 0.12 0.10 0.10 0.11 0.10 0.09 0.08 0.09 0.09 0.09 0.13 0.17 0.16 0.15 0.16 0.15 0.18 0.19 0.20 0.24 0.25 0.22 0.20 0.18 0.15 0.14 0.13 0.14 0.15 0.16 0.20 0.24 0.21 0.21 0.19 0.13 0.11 0.11
0.03 0.03 0.04 0.05 0.05 0.05 0.04 0.05 0.06 0.05 0.04 0.04 0.04 0.04 0.04 0.07 0.10 0.10 0.10 0.12 0.13 0.12 0.12 0.13 0.15 0.19 0.20 0.22 0.19 0.16 0.16 0.12 0.13 0.12 0.10 0.15 0.19 0.24 0.23 0.18 0.16 0.13 0.11
0.01 0.01 0.02 0.02 0.02 0.02 0.02 0.02 0.01 0.01 0.01 0.01 0.01 0.01 0.02 0.03 0.04 0.05 0.06 0.07 0.08 0.08 0.11 0.12 0.13 0.14 0.15 0.19 0.22 0.21 0.15 0.10 0.08 0.10 0.10 0.09 0.11 0.14 0.17 0.17 0.16 0.17 0.16
0.01 0.01 0.01 0.01 0.01 0.01 0.01 0.00 0.00 0.00 0.01 0.01 0.01 0.01 0.00 0.01 0.01 0.03 0.07 0.12 0.12 0.09 0.12 0.12 0.12 0.12 0.14 0.17 0.21 0.25 0.21 0.13 0.08 0.07 0.07 0.06 0.06 0.06 0.08 0.09 0.11 0.12 0.10
0.01 0.00 0.01 0.00 0.00 0.00 0.00 0.00 0.00 0.00 0.01 0.03 0.04 0.02 0.01 0.00 0.01 0.02 0.06 0.08 0.10 0.12 0.15 0.13 0.11 0.11 0.15 0.17 0.19 0.21 0.20 0.18 0.11 0.09 0.08 0.07 0.06 0.05 0.04 0.05 0.07 0.09 0.08
0.00 0.00 0.00 0.00 0.00 0.00 0.00 0.00 0.00 0.00 0.01 0.02 0.03 0.01 0.01 0.00 0.01 0.01 0.01 0.02 0.03 0.04 0.06 0.08 0.09 0.09 0.11 0.15 0.18 0.19 0.18 0.16 0.11 0.09 0.08 0.08 0.08 0.06 0.04 0.04 0.05 0.06 0.08
0.00 0.00 0.00 0.00 0.00 0.00 0.00 0.01 0.01 0.01 0.01 0.01 0.01 0.01 0.01 0.01 0.01 0.01 0.01 0.01 0.01 0.02 0.03 0.04 0.09 0.08 0.08 0.10 0.14 0.18 0.18 0.16 0.12 0.10 0.07 0.06 0.08 0.07 0.07 0.05 0.05 0.06 0.08

GEFSSE_prec_meanprec_102.txt.gz
QPF
0.00 0.00 0.00 0.00 0.00 0.00 0.00 0.00 0.00 0.00 0.00 0.00 0.00 0.00 0.00 0.00 0.00 0.00 0.00 0.00 0.00 0.00 0.00 0.00 0.01 0.01 0.01 0.01 0.01 0.01 0.01 0.01 0.01 0.01 0.01 0.01 0.01 0.02 0.03 0.03 0.02 0.01 0.02
0.00 0.00 0.00 0.00 0.00 0.00 0.00 0.00 0.00 0.00 0.00 0.00 0.00 0.00 0.00 0.00 0.00 0.00 0.00 0.00 0.00 0.00 0.00 0.00 0.00 0.01 0.01 0.00 0.00 0.00 0.01 0.00 0.00 0.01 0.01 0.01 0.01 0.02 0.02 0.02 0.01 0.01 0.02
0.00 0.00 0.00 0.00 0.00 0.00 0.00 0.00 0.00 0.00 0.00 0.00 0.00 0.00 0.00 0.00 0.00 0.00 0.00 0.00 0.00 0.00 0.00 0.00 0.00 0.00 0.01 0.00 0.00 0.00 0.00 0.00 0.01 0.01 0.01 0.01 0.01 0.03 0.01 0.01 0.01 0.01 0.02
0.00 0.00 0.00 0.00 0.00 0.00 0.00 0.00 0.00 0.00 0.00 0.00 0.00 0.00 0.00 0.00 0.00 0.00 0.00 0.00 0.00 0.00 0.00 0.00 0.00 0.00 0.00 0.00 0.00 0.00 0.00 0.00 0.01 0.00 0.00 0.00 0.01 0.03 0.02 0.01 0.01 0.01 0.01
0.00 0.00 0.00 0.00 0.00 0.00 0.00 0.00 0.00 0.00 0.00 0.00 0.00 0.00 0.00 0.00 0.00 0.00 0.00 0.00 0.00 0.00 0.00 0.00 0.00 0.00 0.00 0.00 0.00 0.00 0.00 0.00 0.00 0.00 0.00 0.00 0.01 0.02 0.01 0.00 0.01 0.01 0.01
0.00 0.00 0.00 0.00 0.00 0.00 0.00 0.00 0.00 0.00 0.00 0.00 0.00 0.00 0.00 0.00 0.00 0.00 0.00 0.00 0.00 0.00 0.00 0.00 0.00 0.00 0.00 0.00 0.00 0.00 0.00 0.00 0.01 0.01 0.00 0.00 0.01 0.01 0.01 0.00 0.00 0.01 0.00
0.00 0.00 0.00 0.00 0.00 0.00 0.00 0.00 0.00 0.00 0.00 0.00 0.00 0.00 0.00 0.00 0.00 0.00 0.00 0.00 0.01 0.01 0.00 0.00 0.00 0.00 0.00 0.00 0.00 0.00 0.01 0.01 0.01 0.01 0.00 0.00 0.00 0.01 0.01 0.01 0.00 0.00 0.00
0.00 0.00 0.00 0.01 0.01 0.01 0.01 0.01 0.01 0.01 0.01 0.01 0.01 0.01 0.01 0.01 0.01 0.01 0.00 0.00 0.01 0.01 0.01 0.01 0.00 0.00 0.00 0.00 0.00 0.00 0.00 0.01 0.01 0.01 0.00 0.00 0.01 0.02 0.02 0.01 0.01 0.00 0.00
0.00 0.00 0.00 0.01 0.01 0.01 0.01 0.01 0.01 0.02 0.02 0.02 0.02 0.02 0.02 0.02 0.01 0.01 0.01 0.01 0.01 0.01 0.01 0.01 0.00 0.00 0.00 0.00 0.00 0.00 0.00 0.00 0.00 0.00 0.00 0.00 0.01 0.02 0.03 0.01 0.00 0.00 0.00
0.00 0.00 0.00 0.00 0.01 0.01 0.01 0.01 0.01 0.02 0.02 0.02 0.02 0.02 0.02 0.02 0.02 0.02 0.02 0.02 0.02 0.01 0.02 0.01 0.01 0.00 0.00 0.00 0.00 0.00 0.00 0.01 0.00 0.00 0.01 0.01 0.01 0.02 0.03 0.02 0.01 0.01 0.01
0.01 0.00 0.00 0.00 0.00 0.00 0.01 0.01 0.01 0.02 0.02 0.03 0.03 0.02 0.02 0.02 0.02 0.02 0.02 0.03 0.03 0.04 0.04 0.03 0.03 0.02 0.02 0.01 0.01 0.01 0.01 0.00 0.00 0.00 0.00 0.00 0.01 0.03 0.05 0.05 0.03 0.02 0.01
0.04 0.03 0.02 0.01 0.01 0.01 0.01 0.01 0.01 0.02 0.02 0.03 0.03 0.03 0.03 0.02 0.02 0.02 0.03 0.05 0.07 0.10 0.09 0.08 0.07 0.07 0.05 0.04 0.05 0.04 0.01 0.01 0.01 0.00 0.00 0.00 0.01 0.03 0.06 0.07 0.05 0.03 0.02
0.06 0.06 0.04 0.03 0.04 0.04 0.04 0.04 0.06 0.06 0.06 0.06 0.06 0.06 0.05 0.04 0.04 0.04 0.04 0.07 0.11 0.15 0.14 0.16 0.17 0.14 0.10 0.10 0.12 0.06 0.02 0.02 0.01 0.01 0.01 0.00 0.01 0.03 0.07 0.09 0.06 0.05 0.04
0.07 0.09 0.06 0.07 0.09 0.12 0.12 0.14 0.17 0.14 0.13 0.12 0.12 0.11 0.09 0.09 0.10 0.10 0.12 0.15 0.16 0.18 0.21 0.20 0.18 0.18 0.17 0.14 0.11 0.06 0.03 0.01 0.01 0.01 0.01 0.01 0.01 0.03 0.08 0.10 0.08 0.06 0.05
0.12 0.13 0.14 0.15 0.16 0.19 0.22 0.23 0.26 0.27 0.25 0.25 0.28 0.28 0.23 0.21 0.20 0.20 0.19 0.19 0.21 0.21 0.23 0.25 0.24 0.23 0.22 0.19 0.15 0.10 0.05 0.03 0.03 0.03 0.02 0.02 0.03 0.05 0.08 0.11 0.11 0.09 0.08
0.17 0.19 0.22 0.21 0.21 0.22 0.26 0.31 0.38 0.33 0.30 0.32 0.40 0.38 0.34 0.31 0.28 0.30 0.27 0.22 0.21 0.19 0.20 0.23 0.23 0.25 0.24 0.23 0.19 0.14 0.09 0.08 0.07 0.06 0.04 0.03 0.04 0.06 0.08 0.12 0.14 0.13 0.12
0.19 0.20 0.22 0.25 0.26 0.33 0.36 0.38 0.40 0.35 0.31 0.34 0.33 0.34 0.38 0.35 0.29 0.25 0.22 0.20 0.20 0.17 0.16 0.20 0.21 0.22 0.23 0.22 0.20 0.17 0.12 0.10 0.09 0.09 0.09 0.08 0.06 0.07 0.11 0.12 0.14 0.14 0.13
0.17 0.18 0.20 0.24 0.32 0.42 0.39 0.34 0.32 0.29 0.27 0.29 0.33 0.30 0.27 0.24 0.23 0.20 0.18 0.15 0.14 0.13 0.15 0.19 0.21 0.23 0.23 0.22 0.18 0.15 0.13 0.11 0.08 0.07 0.08 0.11 0.12 0.07 0.09 0.14 0.14 0.15 0.16
0.14 0.18 0.20 0.26 0.27 0.30 0.26 0.21 0.19 0.20 0.21 0.17 0.16 0.14 0.14 0.14 0.12 0.12 0.11 0.09 0.09 0.10 0.13 0.15 0.17 0.19 0.19 0.17 0.16 0.14 0.13 0.13 0.10 0.09 0.09 0.09 0.09 0.08 0.06 0.07 0.13 0.15 0.18
0.12 0.12 0.13 0.12 0.12 0.13 0.14 0.15 0.14 0.14 0.12 0.07 0.06 0.06 0.06 0.06 0.05 0.05 0.04 0.04 0.05 0.06 0.07 0.09 0.12 0.13 0.12 0.12 0.13 0.12 0.11 0.12 0.12 0.11 0.09 0.09 0.08 0.07 0.07 0.06 0.07 0.09 0.14
0.06 0.05 0.05 0.05 0.06 0.07 0.07 0.07 0.08 0.07 0.05 0.04 0.03 0.03 0.03 0.02 0.02 0.02 0.02 0.02 0.02 0.04 0.05 0.07 0.08 0.09 0.10 0.12 0.15 0.13 0.11 0.10 0.10 0.08 0.08 0.09 0.08 0.07 0.06 0.06 0.07 0.06 0.07
0.03 0.03 0.02 0.03 0.03 0.03 0.03 0.03 0.03 0.02 0.02 0.01 0.01 0.01 0.01 0.01 0.00 0.01 0.00 0.00 0.00 0.01 0.02 0.04 0.06 0.07 0.07 0.09 0.11 0.12 0.13 0.11 0.09 0.07 0.06 0.06 0.06 0.07 0.06 0.05 0.06 0.08 0.06
0.02 0.01 0.01 0.01 0.01 0.01 0.01 0.01 0.01 0.01 0.00 0.01 0.01 0.01 0.01 0.00 0.00 0.00 0.00 0.00 0.00 0.01 0.01 0.02 0.03 0.05 0.08 0.08 0.07 0.09 0.10 0.09 0.08 0.06 0.05 0.05 0.05 0.06 0.05 0.06 0.06 0.06 0.07
0.01 0.01 0.00 0.00 0.00 0.00 0.00 0.00 0.00 0.00 0.00 0.00 0.00 0.00 0.00 0.00 0.00 0.00 0.00 0.00 0.00 0.02 0.04 0.05 0.04 0.04 0.06 0.09 0.10 0.09 0.08 0.07 0.08 0.06 0.05 0.05 0.06 0.06 0.06 0.06 0.05 0.04 0.04
0.00 0.00 0.00 0.00 0.00 0.00 0.00 0.00 0.00 0.00 0.00 0.00 0.00 0.00 0.00 0.00 0.00 0.00 0.00 0.00 0.00 0.01 0.02 0.04 0.07 0.07 0.06 0.06 0.08 0.11 0.10 0.08 0.07 0.07 0.05 0.05 0.06 0.06 0.07 0.07 0.06 0.04 0.03
0.00 0.00 0.00 0.00 0.00 0.00 0.00 0.00 0.00 0.00 0.00 0.00 0.00 0.00 0.00 0.00 0.00 0.00 0.01 0.00 0.00 0.00 0.00 0.00 0.01 0.04 0.06 0.06 0.08 0.09 0.10 0.10 0.10 0.08 0.08 0.06 0.06 0.06 0.07 0.07 0.06 0.05 0.04